Time,TemperatureF,DewpointF,PressureIn,WindDirection,WindDirectionDegrees,WindSpeedMPH,WindSpeedGustMPH,Humidity,HourlyPrecipIn,Conditions,Clouds,dailyrainin,SoftwareType,DateUTC
2013-04-23 00:01:00,57.5,50.0,29.94,SSW,197,4.0,5.0,76,0.00,,---,0.00,VWS V14.01,2013-04-23 05:01:00,
2013-04-23 00:02:00,57.4,49.9,29.94,South,186,4.0,5.0,76,0.00,,---,0.00,VWS V14.01,2013-04-23 05:02:00,
2013-04-23 00:04:00,57.5,50.0,29.94,South,178,4.0,9.0,76,0.00,,---,0.00,VWS V14.01,2013-04-23 05:04:00,
2013-04-23 00:06:00,57.5,50.0,29.94,South,178,3.0,9.0,76,0.00,,---,0.00,VWS V14.01,2013-04-23 05:06:00,
2013-04-23 00:07:00,57.5,50.0,29.94,South,180,4.0,9.0,76,0.00,,---,0.00,VWS V14.01,2013-04-23 05:07:00,
2013-04-23 00:09:00,57.5,50.0,29.94,South,173,3.0,9.0,76,0.00,,---,0.00,VWS V14.01,2013-04-23 05:09:00,
2013-04-23 00:11:00,57.5,50.0,29.94,South,170,4.0,9.0,76,0.00,,---,0.00,VWS V14.01,2013-04-23 05:11:00,
2013-04-23 00:12:00,57.5,50.4,29.94,SSE,164,3.0,9.0,77,0.00,,---,0.00,VWS V14.01,2013-04-23 05:12:00,
2013-04-23 00:15:00,57.3,50.2,29.94,SSE,163,1.0,9.0,77,0.00,,---,0.00,VWS V14.01,2013-04-23 05:15:00,
2013-04-23 00:17:00,57.3,50.2,29.94,SSE,163,1.0,9.0,77,0.00,,---,0.00,VWS V14.01,2013-04-23 05:17:00,
2013-04-23 00:18:00,57.3,50.2,29.94,SSE,163,0.0,9.0,77,0.00,,---,0.00,VWS V14.01,2013-04-23 05:18:00,
2013-04-23 00:20:00,57.2,50.1,29.94,SSE,163,0.0,9.0,77,0.00,,---,0.00,VWS V14.01,2013-04-23 05:20:00,
2013-04-23 00:22:00,57.1,50.0,29.93,SSE,163,1.0,9.0,77,0.00,,---,0.00,VWS V14.01,2013-04-23 05:22:00,
2013-04-23 00:23:00,57.2,50.1,29.93,SSE,163,0.0,9.0,77,0.00,,---,0.00,VWS V14.01,2013-04-23 05:23:00,
2013-04-23 00:26:00,57.2,50.1,29.93,SSE,163,0.0,9.0,77,0.00,,---,0.00,VWS V14.01,2013-04-23 05:26:00,
2013-04-23 00:27:00,57.1,50.0,29.93,SSE,163,0.0,9.0,77,0.00,,---,0.00,VWS V14.01,2013-04-23 05:27:00,
2013-04-23 00:28:00,57.1,50.0,29.93,SSE,163,0.0,9.0,77,0.00,,---,0.00,VWS V14.01,2013-04-23 05:28:00,
2013-04-23 00:31:00,57.1,50.0,29.93,SSE,163,0.0,0.0,77,0.00,,---,0.00,VWS V14.01,2013-04-23 05:31:00,
2013-04-23 00:32:00,57.1,50.3,29.93,SSE,163,0.0,0.0,78,0.00,,---,0.00,VWS V14.01,2013-04-23 05:32:00,
2013-04-23 00:33:00,57.1,50.7,29.93,SSE,163,0.0,2.0,79,0.00,,---,0.00,VWS V14.01,2013-04-23 05:33:00,
2013-04-23 00:36:00,57.0,50.6,29.93,SSE,163,0.0,2.0,79,0.00,,---,0.00,VWS V14.01,2013-04-23 05:36:00,
2013-04-23 00:37:00,57.0,50.6,29.93,SSE,163,0.0,2.0,79,0.00,,---,0.00,VWS V14.01,2013-04-23 05:37:00,
2013-04-23 00:38:00,56.9,50.5,29.93,SSE,163,0.0,2.0,79,0.00,,---,0.00,VWS V14.01,2013-04-23 05:38:00,
2013-04-23 00:41:00,56.8,50.4,29.93,SSE,163,0.0,2.0,79,0.00,,---,0.00,VWS V14.01,2013-04-23 05:41:00,
2013-04-23 00:42:00,56.8,50.4,29.93,SSE,163,0.0,2.0,79,0.01,,---,0.01,VWS V14.01,2013-04-23 05:42:00,
2013-04-23 00:43:00,56.7,50.3,29.93,SSE,163,0.0,2.0,79,0.01,,---,0.01,VWS V14.01,2013-04-23 05:43:00,
2013-04-23 00:46:00,56.5,51.1,29.93,SSE,163,0.0,2.0,82,0.01,,---,0.01,VWS V14.01,2013-04-23 05:46:00,
2013-04-23 00:47:00,56.4,51.0,29.93,SSE,163,0.0,2.0,82,0.01,,---,0.01,VWS V14.01,2013-04-23 05:47:00,
2013-04-23 00:48:00,56.3,50.9,29.93,SSE,163,0.0,2.0,82,0.01,,---,0.01,VWS V14.01,2013-04-23 05:48:00,
2013-04-23 00:52:00,56.2,50.8,29.92,SSE,163,0.0,2.0,82,0.01,,---,0.01,VWS V14.01,2013-04-23 05:52:00,
2013-04-23 00:53:00,56.2,50.8,29.92,SSE,163,1.0,2.0,82,0.01,,---,0.01,VWS V14.01,2013-04-23 05:53:00,
2013-04-23 00:57:00,56.2,50.8,29.92,SSE,163,0.0,2.0,82,0.01,,---,0.01,VWS V14.01,2013-04-23 05:57:00,
2013-04-23 00:58:00,56.1,50.7,29.92,SSE,163,0.0,2.0,82,0.01,,---,0.01,VWS V14.01,2013-04-23 05:58:00,
2013-04-23 00:59:00,56.1,50.7,29.92,SE,144,1.0,2.0,82,0.01,,---,0.01,VWS V14.01,2013-04-23 05:59:00,
2013-04-23 01:03:00,56.1,50.7,29.91,SE,132,1.0,2.0,82,0.01,,---,0.00,VWS V14.01,2013-04-23 06:03:00,
2013-04-23 01:04:00,56.1,50.7,29.91,SE,132,1.0,2.0,82,0.01,,---,0.00,VWS V14.01,2013-04-23 06:04:00,
2013-04-23 01:08:00,56.0,50.9,29.90,SE,131,0.0,2.0,83,0.01,,---,0.00,VWS V14.01,2013-04-23 06:08:00,
2013-04-23 01:09:00,56.0,50.6,29.90,SE,131,0.0,2.0,82,0.01,,---,0.00,VWS V14.01,2013-04-23 06:09:00,
2013-04-23 01:13:00,55.9,50.8,29.90,SE,131,0.0,2.0,83,0.01,,---,0.00,VWS V14.01,2013-04-23 06:13:00,
2013-04-23 01:14:00,55.9,50.8,29.90,SE,131,0.0,2.0,83,0.01,,---,0.00,VWS V14.01,2013-04-23 06:14:00,
2013-04-23 01:18:00,55.7,50.6,29.90,SE,131,0.0,2.0,83,0.01,,---,0.00,VWS V14.01,2013-04-23 06:18:00,
2013-04-23 01:19:00,55.7,50.6,29.90,SE,131,0.0,2.0,83,0.01,,---,0.00,VWS V14.01,2013-04-23 06:19:00,
2013-04-23 01:23:00,55.5,50.4,29.89,SE,131,0.0,2.0,83,0.01,,---,0.00,VWS V14.01,2013-04-23 06:23:00,
2013-04-23 01:24:00,55.5,50.4,29.89,SE,131,0.0,2.0,83,0.01,,---,0.00,VWS V14.01,2013-04-23 06:24:00,
2013-04-23 01:28:00,55.3,50.6,29.89,SE,132,1.0,2.0,84,0.01,,---,0.00,VWS V14.01,2013-04-23 06:28:00,
2013-04-23 01:29:00,55.3,50.6,29.89,SE,139,1.0,2.0,84,0.01,,---,0.00,VWS V14.01,2013-04-23 06:29:00,
2013-04-23 01:33:00,54.6,50.2,29.89,SE,139,0.0,1.0,85,0.01,,---,0.00,VWS V14.01,2013-04-23 06:33:00,
2013-04-23 01:34:00,54.6,50.2,29.89,SE,139,1.0,1.0,85,0.01,,---,0.00,VWS V14.01,2013-04-23 06:34:00,
2013-04-23 01:38:00,53.9,50.1,29.89,SE,139,0.0,1.0,87,0.01,,---,0.00,VWS V14.01,2013-04-23 06:38:00,
2013-04-23 01:39:00,53.9,50.1,29.89,SE,139,0.0,1.0,87,0.01,,---,0.00,VWS V14.01,2013-04-23 06:39:00,
2013-04-23 01:40:00,53.8,50.0,29.89,SE,139,0.0,1.0,87,0.01,,---,0.00,VWS V14.01,2013-04-23 06:40:00,
2013-04-23 01:43:00,53.7,49.9,29.89,SE,139,0.0,2.0,87,0.01,,---,0.00,VWS V14.01,2013-04-23 06:43:00,
2013-04-23 01:44:00,53.7,49.9,29.89,SE,139,0.0,2.0,87,0.01,,---,0.00,VWS V14.01,2013-04-23 06:44:00,
2013-04-23 01:45:00,53.7,49.9,29.89,SE,139,0.0,2.0,87,0.01,,---,0.00,VWS V14.01,2013-04-23 06:45:00,
2013-04-23 01:49:00,53.8,50.0,29.89,SE,139,0.0,2.0,87,0.01,,---,0.00,VWS V14.01,2013-04-23 06:49:00,
2013-04-23 01:50:00,53.9,49.8,29.89,SE,139,1.0,2.0,86,0.01,,---,0.00,VWS V14.01,2013-04-23 06:50:00,
2013-04-23 01:53:00,54.2,49.8,29.89,SE,139,0.0,3.0,85,0.01,,---,0.00,VWS V14.01,2013-04-23 06:53:00,
2013-04-23 01:54:00,54.2,49.8,29.89,SE,139,0.0,3.0,85,0.01,,---,0.00,VWS V14.01,2013-04-23 06:54:00,
2013-04-23 01:55:00,54.4,49.7,29.89,SE,139,1.0,3.0,84,0.01,,---,0.00,VWS V14.01,2013-04-23 06:55:00,
2013-04-23 01:59:00,54.7,50.0,29.89,SE,139,1.0,3.0,84,0.01,,---,0.00,VWS V14.01,2013-04-23 06:59:00,
2013-04-23 02:00:00,54.8,49.7,29.89,SE,139,0.0,3.0,83,0.01,,---,0.00,VWS V14.01,2013-04-23 07:00:00,
2013-04-23 02:01:00,54.9,49.8,29.89,SE,139,0.0,0.0,83,0.00,,---,0.00,VWS V14.01,2013-04-23 07:01:00,
2013-04-23 02:04:00,55.0,49.9,29.89,SE,139,0.0,2.0,83,0.00,,---,0.00,VWS V14.01,2013-04-23 07:04:00,
2013-04-23 02:05:00,55.1,50.0,29.89,SE,139,0.0,2.0,83,0.00,,---,0.00,VWS V14.01,2013-04-23 07:05:00,
2013-04-23 02:06:00,55.1,50.4,29.89,SE,139,0.0,2.0,84,0.00,,---,0.00,VWS V14.01,2013-04-23 07:06:00,
2013-04-23 02:09:00,55.0,50.3,29.89,SE,143,0.0,2.0,84,0.00,,---,0.00,VWS V14.01,2013-04-23 07:09:00,
2013-04-23 02:10:00,55.0,50.3,29.89,SE,143,0.0,2.0,84,0.00,,---,0.00,VWS V14.01,2013-04-23 07:10:00,
2013-04-23 02:11:00,55.0,50.3,29.89,SE,143,1.0,2.0,84,0.00,,---,0.00,VWS V14.01,2013-04-23 07:11:00,
2013-04-23 02:14:00,54.8,50.1,29.89,SE,144,0.0,3.0,84,0.00,,---,0.00,VWS V14.01,2013-04-23 07:14:00,
2013-04-23 02:15:00,54.7,50.0,29.89,SE,144,0.0,3.0,84,0.00,,---,0.00,VWS V14.01,2013-04-23 07:15:00,
2013-04-23 02:16:00,54.8,50.1,29.89,SE,144,0.0,3.0,84,0.00,,---,0.00,VWS V14.01,2013-04-23 07:16:00,
2013-04-23 02:19:00,54.8,50.1,29.89,SSE,159,0.0,3.0,84,0.00,,---,0.00,VWS V14.01,2013-04-23 07:19:00,
2013-04-23 02:20:00,54.8,50.1,29.89,SSE,159,0.0,3.0,84,0.00,,---,0.00,VWS V14.01,2013-04-23 07:20:00,
2013-04-23 02:21:00,54.8,50.4,29.89,SSE,159,0.0,3.0,85,0.00,,---,0.00,VWS V14.01,2013-04-23 07:21:00,
2013-04-23 02:24:00,54.7,50.0,29.89,SSE,159,1.0,4.0,84,0.00,,---,0.00,VWS V14.01,2013-04-23 07:24:00,
2013-04-23 02:25:00,54.7,50.0,29.89,SSE,159,0.0,4.0,84,0.00,,---,0.00,VWS V14.01,2013-04-23 07:25:00,
2013-04-23 02:26:00,54.6,50.2,29.89,SSE,159,1.0,4.0,85,0.00,,---,0.00,VWS V14.01,2013-04-23 07:26:00,
2013-04-23 02:30:00,54.4,50.3,29.89,SSE,159,1.0,4.0,86,0.00,,---,0.00,VWS V14.01,2013-04-23 07:30:00,
2013-04-23 02:31:00,54.2,49.8,29.88,SSE,159,1.0,3.0,85,0.00,,---,0.00,VWS V14.01,2013-04-23 07:31:00,
2013-04-23 02:32:00,54.2,49.8,29.88,SSE,159,0.0,3.0,85,0.00,,---,0.00,VWS V14.01,2013-04-23 07:32:00,
2013-04-23 02:35:00,54.2,49.8,29.89,SSE,159,0.0,3.0,85,0.00,,---,0.00,VWS V14.01,2013-04-23 07:35:00,
2013-04-23 02:36:00,54.2,49.8,29.88,SSE,159,0.0,3.0,85,0.00,,---,0.00,VWS V14.01,2013-04-23 07:36:00,
2013-04-23 02:37:00,54.2,49.8,29.88,SSE,159,2.0,3.0,85,0.00,,---,0.00,VWS V14.01,2013-04-23 07:37:00,
2013-04-23 02:40:00,54.4,50.0,29.88,SSE,162,3.0,4.0,85,0.00,,---,0.00,VWS V14.01,2013-04-23 07:40:00,
2013-04-23 02:41:00,54.5,49.8,29.88,SSE,161,1.0,4.0,84,0.00,,---,0.00,VWS V14.01,2013-04-23 07:41:00,
2013-04-23 02:42:00,54.5,49.8,29.88,SSE,161,0.0,4.0,84,0.00,,---,0.00,VWS V14.01,2013-04-23 07:42:00,
2013-04-23 02:45:00,54.6,49.9,29.88,SE,140,1.0,4.0,84,0.00,,---,0.00,VWS V14.01,2013-04-23 07:45:00,
2013-04-23 02:47:00,54.5,50.1,29.88,SE,140,1.0,4.0,85,0.00,,---,0.00,VWS V14.01,2013-04-23 07:47:00,
2013-04-23 02:50:00,54.4,50.0,29.88,SE,140,2.0,4.0,85,0.00,,---,0.00,VWS V14.01,2013-04-23 07:50:00,
2013-04-23 02:51:00,54.4,49.7,29.88,SE,140,0.0,4.0,84,0.00,,---,0.00,VWS V14.01,2013-04-23 07:51:00,
2013-04-23 02:52:00,54.4,49.7,29.88,SE,140,0.0,4.0,84,0.00,,---,0.00,VWS V14.01,2013-04-23 07:52:00,
2013-04-23 02:55:00,54.5,49.5,29.88,SE,140,1.0,4.0,83,0.00,,---,0.00,VWS V14.01,2013-04-23 07:55:00,
2013-04-23 02:56:00,54.6,49.5,29.88,SE,139,1.0,4.0,83,0.00,,---,0.00,VWS V14.01,2013-04-23 07:56:00,
2013-04-23 02:57:00,54.7,49.7,29.88,SSE,168,2.0,4.0,83,0.00,,---,0.00,VWS V14.01,2013-04-23 07:57:00,
2013-04-23 03:00:00,54.8,49.4,29.88,SSE,152,1.0,4.0,82,0.00,,---,0.00,VWS V14.01,2013-04-23 08:00:00,
2013-04-23 03:01:00,54.8,49.4,29.89,SSE,152,1.0,1.0,82,0.00,,---,0.00,VWS V14.01,2013-04-23 08:01:00,
2013-04-23 03:02:00,55.3,49.9,29.89,SSE,159,3.0,3.0,82,0.00,,---,0.00,VWS V14.01,2013-04-23 08:02:00,
2013-04-23 03:03:00,55.4,49.7,29.89,SSE,159,2.0,3.0,81,0.00,,---,0.00,VWS V14.01,2013-04-23 08:03:00,
2013-04-23 03:05:00,55.4,49.7,29.89,SSE,155,3.0,4.0,81,0.00,,---,0.00,VWS V14.01,2013-04-23 08:05:00,
2013-04-23 03:06:00,55.5,49.4,29.89,SSE,150,3.0,5.0,80,0.00,,---,0.00,VWS V14.01,2013-04-23 08:06:00,
2013-04-23 03:07:00,55.5,49.8,29.89,SSE,150,5.0,5.0,81,0.00,,---,0.00,VWS V14.01,2013-04-23 08:07:00,
2013-04-23 03:08:00,55.5,49.8,29.89,SSE,161,3.0,5.0,81,0.00,,---,0.00,VWS V14.01,2013-04-23 08:08:00,
2013-04-23 03:10:00,55.5,49.4,29.88,SSE,161,4.0,5.0,80,0.00,,---,0.00,VWS V14.01,2013-04-23 08:10:00,
2013-04-23 03:12:00,55.6,49.5,29.89,SSE,161,3.0,5.0,80,0.00,,---,0.00,VWS V14.01,2013-04-23 08:12:00,
2013-04-23 03:13:00,55.6,49.5,29.89,SSE,161,3.0,5.0,80,0.00,,---,0.00,VWS V14.01,2013-04-23 08:13:00,
2013-04-23 03:15:00,55.8,49.7,29.89,SSE,159,2.0,5.0,80,0.00,,---,0.00,VWS V14.01,2013-04-23 08:15:00,
2013-04-23 03:17:00,55.8,50.1,29.89,SSE,159,2.0,5.0,81,0.00,,---,0.00,VWS V14.01,2013-04-23 08:17:00,
2013-04-23 03:18:00,55.7,49.6,29.89,SSE,155,2.0,5.0,80,0.00,,---,0.00,VWS V14.01,2013-04-23 08:18:00,
2013-04-23 03:21:00,55.7,49.3,29.88,SSE,157,2.0,5.0,79,0.00,,---,0.00,VWS V14.01,2013-04-23 08:21:00,
2013-04-23 03:22:00,55.8,49.7,29.88,SSE,154,5.0,5.0,80,0.00,,---,0.00,VWS V14.01,2013-04-23 08:22:00,
2013-04-23 03:23:00,55.8,49.4,29.89,SSE,160,4.0,5.0,79,0.00,,---,0.00,VWS V14.01,2013-04-23 08:23:00,
2013-04-23 03:26:00,56.0,49.6,29.88,SSE,157,3.0,5.0,79,0.00,,---,0.00,VWS V14.01,2013-04-23 08:26:00,
2013-04-23 03:28:00,56.1,49.7,29.88,SSE,162,5.0,5.0,79,0.00,,---,0.00,VWS V14.01,2013-04-23 08:28:00,
2013-04-23 03:31:00,56.3,49.5,29.88,SSE,162,4.0,5.0,78,0.00,,---,0.00,VWS V14.01,2013-04-23 08:31:00,
2013-04-23 03:33:00,56.4,49.3,29.88,SSE,161,3.0,6.0,77,0.00,,---,0.00,VWS V14.01,2013-04-23 08:33:00,
2013-04-23 03:36:00,56.5,49.4,29.88,SSE,155,5.0,7.0,77,0.00,,---,0.00,VWS V14.01,2013-04-23 08:36:00,
2013-04-23 03:38:00,56.6,49.5,29.88,SSE,162,5.0,8.0,77,0.00,,---,0.00,VWS V14.01,2013-04-23 08:38:00,
2013-04-23 03:39:00,56.6,49.8,29.87,SSE,157,7.0,8.0,78,0.00,,---,0.00,VWS V14.01,2013-04-23 08:39:00,
2013-04-23 03:41:00,56.6,49.1,29.87,SSE,150,5.0,8.0,76,0.00,,---,0.00,VWS V14.01,2013-04-23 08:41:00,
2013-04-23 03:43:00,56.8,49.3,29.87,SSE,164,4.0,10.0,76,0.00,,---,0.00,VWS V14.01,2013-04-23 08:43:00,
2013-04-23 03:44:00,56.8,49.7,29.87,SSE,167,7.0,10.0,77,0.00,,---,0.00,VWS V14.01,2013-04-23 08:44:00,
2013-04-23 03:46:00,56.8,49.3,29.86,SSE,153,6.0,10.0,76,0.00,,---,0.00,VWS V14.01,2013-04-23 08:46:00,
2013-04-23 03:48:00,56.8,49.3,29.86,SSE,161,6.0,10.0,76,0.00,,---,0.00,VWS V14.01,2013-04-23 08:48:00,
2013-04-23 03:50:00,56.8,49.3,29.85,SSE,159,6.0,10.0,76,0.00,,---,0.00,VWS V14.01,2013-04-23 08:50:00,
2013-04-23 03:51:00,56.8,49.3,29.85,SSE,162,6.0,10.0,76,0.00,,---,0.00,VWS V14.01,2013-04-23 08:51:00,
2013-04-23 03:53:00,56.7,49.2,29.85,SSE,155,10.0,10.0,76,0.00,,---,0.00,VWS V14.01,2013-04-23 08:53:00,
2013-04-23 03:55:00,56.8,49.3,29.85,SSE,158,6.0,10.0,76,0.00,,---,0.00,VWS V14.01,2013-04-23 08:55:00,
2013-04-23 03:56:00,56.8,49.3,29.84,SSE,153,6.0,10.0,76,0.00,,---,0.00,VWS V14.01,2013-04-23 08:56:00,
2013-04-23 03:58:00,56.7,49.2,29.84,South,174,6.0,10.0,76,0.00,,---,0.00,VWS V14.01,2013-04-23 08:58:00,
2013-04-23 03:59:00,56.7,49.2,29.84,SSE,157,8.0,10.0,76,0.00,,---,0.00,VWS V14.01,2013-04-23 08:59:00,
2013-04-23 04:00:00,56.6,49.1,29.84,SSW,198,5.0,10.0,76,0.00,,---,0.00,VWS V14.01,2013-04-23 09:00:00,
2013-04-23 04:01:00,56.7,48.9,29.85,SSE,157,10.0,11.0,75,0.00,,---,0.00,VWS V14.01,2013-04-23 09:01:00,
2013-04-23 04:03:00,56.8,49.3,29.85,South,173,4.0,11.0,76,0.00,,---,0.00,VWS V14.01,2013-04-23 09:03:00,
2013-04-23 04:04:00,56.8,49.3,29.85,South,184,3.0,11.0,76,0.00,,---,0.00,VWS V14.01,2013-04-23 09:04:00,
2013-04-23 04:05:00,56.8,49.3,29.86,SSE,166,4.0,11.0,76,0.00,,---,0.00,VWS V14.01,2013-04-23 09:05:00,
2013-04-23 04:07:00,56.8,49.0,29.86,SSW,199,7.0,11.0,75,0.00,,---,0.00,VWS V14.01,2013-04-23 09:07:00,
2013-04-23 04:08:00,56.8,49.0,29.85,SSE,155,7.0,11.0,75,0.00,,---,0.00,VWS V14.01,2013-04-23 09:08:00,
2013-04-23 04:09:00,56.8,49.0,29.85,SSE,165,4.0,11.0,75,0.00,,---,0.00,VWS V14.01,2013-04-23 09:09:00,
2013-04-23 04:10:00,56.9,49.1,29.85,SSE,156,10.0,11.0,75,0.00,,---,0.00,VWS V14.01,2013-04-23 09:10:00,
2013-04-23 04:12:00,57.0,49.2,29.84,SSE,156,7.0,11.0,75,0.00,,---,0.00,VWS V14.01,2013-04-23 09:12:00,
2013-04-23 04:13:00,57.1,49.3,29.84,SSE,157,5.0,11.0,75,0.00,,---,0.00,VWS V14.01,2013-04-23 09:13:00,
2013-04-23 04:14:00,57.1,49.3,29.84,SSE,164,4.0,11.0,75,0.00,,---,0.00,VWS V14.01,2013-04-23 09:14:00,
2013-04-23 04:15:00,56.9,49.1,29.84,SSE,153,7.0,11.0,75,0.00,,---,0.00,VWS V14.01,2013-04-23 09:15:00,
2013-04-23 04:16:00,56.9,49.1,29.83,SSE,151,8.0,11.0,75,0.00,,---,0.00,VWS V14.01,2013-04-23 09:16:00,
2013-04-23 04:17:00,56.9,49.1,29.83,SSE,153,4.0,11.0,75,0.00,,---,0.00,VWS V14.01,2013-04-23 09:17:00,
2013-04-23 04:18:00,56.9,49.1,29.83,SE,146,5.0,11.0,75,0.00,,---,0.00,VWS V14.01,2013-04-23 09:18:00,
2013-04-23 04:19:00,56.9,49.1,29.83,SSE,154,3.0,11.0,75,0.00,,---,0.00,VWS V14.01,2013-04-23 09:19:00,
2013-04-23 04:20:00,56.8,49.0,29.83,South,169,3.0,11.0,75,0.00,,---,0.00,VWS V14.01,2013-04-23 09:20:00,
2013-04-23 04:21:00,56.8,49.0,29.83,SSE,159,5.0,11.0,75,0.00,,---,0.00,VWS V14.01,2013-04-23 09:21:00,
2013-04-23 04:22:00,56.8,49.0,29.84,SSE,153,4.0,11.0,75,0.00,,---,0.00,VWS V14.01,2013-04-23 09:22:00,
2013-04-23 04:23:00,56.8,49.0,29.84,SSE,152,4.0,11.0,75,0.00,,---,0.00,VWS V14.01,2013-04-23 09:23:00,
2013-04-23 04:24:00,56.8,49.0,29.84,SSE,155,6.0,11.0,75,0.00,,---,0.00,VWS V14.01,2013-04-23 09:24:00,
2013-04-23 04:25:00,56.8,49.0,29.84,SSE,155,4.0,11.0,75,0.00,,---,0.00,VWS V14.01,2013-04-23 09:25:00,
2013-04-23 04:26:00,56.8,49.0,29.84,SSE,155,5.0,11.0,75,0.00,,---,0.00,VWS V14.01,2013-04-23 09:26:00,
2013-04-23 04:27:00,56.8,49.0,29.84,SSE,160,7.0,11.0,75,0.00,,---,0.00,VWS V14.01,2013-04-23 09:27:00,
2013-04-23 04:29:00,56.8,48.6,29.84,SSE,168,3.0,11.0,74,0.00,,---,0.00,VWS V14.01,2013-04-23 09:29:00,
2013-04-23 04:30:00,56.8,48.6,29.84,SSE,159,6.0,11.0,74,0.00,,---,0.00,VWS V14.01,2013-04-23 09:30:00,
2013-04-23 04:31:00,56.8,48.6,29.84,SSE,153,9.0,9.0,74,0.00,,---,0.00,VWS V14.01,2013-04-23 09:31:00,
2013-04-23 04:32:00,56.8,48.6,29.84,South,169,3.0,9.0,74,0.00,,---,0.00,VWS V14.01,2013-04-23 09:32:00,
2013-04-23 04:34:00,56.8,48.6,29.84,SSE,158,6.0,9.0,74,0.00,,---,0.00,VWS V14.01,2013-04-23 09:34:00,
2013-04-23 04:35:00,56.7,48.9,29.84,SSE,158,6.0,9.0,75,0.00,,---,0.00,VWS V14.01,2013-04-23 09:35:00,
2013-04-23 04:36:00,56.7,48.5,29.84,SSE,161,5.0,9.0,74,0.00,,---,0.00,VWS V14.01,2013-04-23 09:36:00,
2013-04-23 04:37:00,56.7,48.9,29.85,SSE,158,7.0,9.0,75,0.00,,---,0.00,VWS V14.01,2013-04-23 09:37:00,
2013-04-23 04:39:00,56.8,49.0,29.85,South,182,7.0,9.0,75,0.00,,---,0.00,VWS V14.01,2013-04-23 09:39:00,
2013-04-23 04:40:00,56.8,49.0,29.85,SSE,165,5.0,9.0,75,0.00,,---,0.00,VWS V14.01,2013-04-23 09:40:00,
2013-04-23 04:41:00,56.8,49.0,29.85,South,171,5.0,9.0,75,0.00,,---,0.00,VWS V14.01,2013-04-23 09:41:00,
2013-04-23 04:42:00,57.0,48.8,29.84,SSE,163,3.0,9.0,74,0.00,,---,0.00,VWS V14.01,2013-04-23 09:42:00,
2013-04-23 04:45:00,57.1,48.9,29.84,SSE,150,6.0,9.0,74,0.00,,---,0.00,VWS V14.01,2013-04-23 09:45:00,
2013-04-23 04:46:00,57.1,48.9,29.84,SSE,159,5.0,9.0,74,0.00,,---,0.00,VWS V14.01,2013-04-23 09:46:00,
2013-04-23 04:47:00,57.2,49.0,29.84,SSE,160,4.0,9.0,74,0.00,,---,0.00,VWS V14.01,2013-04-23 09:47:00,
2013-04-23 04:50:00,57.2,49.0,29.84,SSE,163,4.0,9.0,74,0.00,,---,0.00,VWS V14.01,2013-04-23 09:50:00,
2013-04-23 04:51:00,57.2,49.0,29.84,SSE,157,5.0,9.0,74,0.00,,---,0.00,VWS V14.01,2013-04-23 09:51:00,
2013-04-23 04:52:00,57.2,49.0,29.83,SSE,153,7.0,9.0,74,0.00,,---,0.00,VWS V14.01,2013-04-23 09:52:00,
2013-04-23 04:55:00,57.3,49.1,29.84,SSE,157,5.0,10.0,74,0.00,,---,0.00,VWS V14.01,2013-04-23 09:55:00,
2013-04-23 04:56:00,57.3,49.1,29.84,SSE,157,6.0,10.0,74,0.00,,---,0.00,VWS V14.01,2013-04-23 09:56:00,
2013-04-23 04:57:00,57.3,48.7,29.84,SSE,159,11.0,11.0,73,0.00,,---,0.00,VWS V14.01,2013-04-23 09:57:00,
2013-04-23 05:00:00,57.4,48.8,29.84,South,170,4.0,11.0,73,0.00,,---,0.00,VWS V14.01,2013-04-23 10:00:00,
2013-04-23 05:01:00,57.4,48.8,29.84,SSE,155,7.0,7.0,73,0.00,,---,0.00,VWS V14.01,2013-04-23 10:01:00,
2013-04-23 05:03:00,57.4,48.8,29.84,SSE,157,5.0,10.0,73,0.00,,---,0.00,VWS V14.01,2013-04-23 10:03:00,
2013-04-23 05:05:00,57.4,48.8,29.84,SSE,165,6.0,10.0,73,0.00,,---,0.00,VWS V14.01,2013-04-23 10:05:00,
2013-04-23 05:06:00,57.4,48.8,29.84,SSE,165,5.0,10.0,73,0.00,,---,0.00,VWS V14.01,2013-04-23 10:06:00,
2013-04-23 05:07:00,57.4,48.8,29.84,SSE,167,4.0,10.0,73,0.00,,---,0.00,VWS V14.01,2013-04-23 10:07:00,
2013-04-23 05:08:00,57.4,48.8,29.84,South,173,4.0,10.0,73,0.00,,---,0.00,VWS V14.01,2013-04-23 10:08:00,
2013-04-23 05:10:00,57.5,48.9,29.84,South,176,7.0,10.0,73,0.00,,---,0.00,VWS V14.01,2013-04-23 10:10:00,
2013-04-23 05:11:00,57.5,48.9,29.84,South,171,5.0,10.0,73,0.00,,---,0.00,VWS V14.01,2013-04-23 10:11:00,
2013-04-23 05:12:00,57.5,48.9,29.84,SSE,155,6.0,10.0,73,0.00,,---,0.00,VWS V14.01,2013-04-23 10:12:00,
2013-04-23 05:13:00,57.6,48.7,29.84,South,174,4.0,11.0,72,0.00,,---,0.00,VWS V14.01,2013-04-23 10:13:00,
2013-04-23 05:15:00,57.5,48.6,29.84,SSE,163,4.0,11.0,72,0.00,,---,0.00,VWS V14.01,2013-04-23 10:15:00,
2013-04-23 05:16:00,57.6,49.0,29.84,SSW,194,6.0,11.0,73,0.00,,---,0.00,VWS V14.01,2013-04-23 10:16:00,
2013-04-23 05:17:00,57.6,49.0,29.85,South,177,6.0,11.0,73,0.00,,---,0.00,VWS V14.01,2013-04-23 10:17:00,
2013-04-23 05:18:00,57.5,48.9,29.85,SSE,163,7.0,11.0,73,0.00,,---,0.00,VWS V14.01,2013-04-23 10:18:00,
2013-04-23 05:20:00,57.5,48.6,29.85,SSE,167,4.0,11.0,72,0.00,,---,0.00,VWS V14.01,2013-04-23 10:20:00,
2013-04-23 05:21:00,57.5,48.9,29.85,SSE,165,5.0,11.0,73,0.00,,---,0.00,VWS V14.01,2013-04-23 10:21:00,
2013-04-23 05:22:00,57.5,48.9,29.85,South,171,3.0,11.0,73,0.00,,---,0.00,VWS V14.01,2013-04-23 10:22:00,
2013-04-23 05:23:00,57.4,48.8,29.85,South,187,6.0,11.0,73,0.00,,---,0.00,VWS V14.01,2013-04-23 10:23:00,
2013-04-23 05:25:00,57.5,48.6,29.85,SSE,163,5.0,11.0,72,0.00,,---,0.00,VWS V14.01,2013-04-23 10:25:00,
2013-04-23 05:26:00,57.5,48.6,29.85,SSE,165,7.0,11.0,72,0.00,,---,0.00,VWS V14.01,2013-04-23 10:26:00,
2013-04-23 05:27:00,57.6,48.7,29.85,South,169,4.0,11.0,72,0.00,,---,0.00,VWS V14.01,2013-04-23 10:27:00,
2013-04-23 05:28:00,57.6,49.0,29.84,SSE,153,6.0,11.0,73,0.00,,---,0.00,VWS V14.01,2013-04-23 10:28:00,
2013-04-23 05:30:00,57.5,48.9,29.84,SSE,156,5.0,11.0,73,0.00,,---,0.00,VWS V14.01,2013-04-23 10:30:00,
2013-04-23 05:31:00,57.5,48.9,29.84,SSE,160,9.0,10.0,73,0.00,,---,0.00,VWS V14.01,2013-04-23 10:31:00,
2013-04-23 05:33:00,57.4,48.8,29.84,SSE,159,5.0,10.0,73,0.00,,---,0.00,VWS V14.01,2013-04-23 10:33:00,
2013-04-23 05:34:00,57.3,48.7,29.84,SSE,160,6.0,10.0,73,0.00,,---,0.00,VWS V14.01,2013-04-23 10:34:00,
2013-04-23 05:35:00,57.3,48.7,29.84,SSE,158,5.0,10.0,73,0.00,,---,0.00,VWS V14.01,2013-04-23 10:35:00,
2013-04-23 05:36:00,57.2,48.6,29.84,SSE,158,10.0,10.0,73,0.00,,---,0.00,VWS V14.01,2013-04-23 10:36:00,
2013-04-23 05:38:00,57.2,48.6,29.84,SSE,153,7.0,10.0,73,0.00,,---,0.00,VWS V14.01,2013-04-23 10:38:00,
2013-04-23 05:39:00,57.3,48.7,29.84,SSE,159,7.0,10.0,73,0.00,,---,0.00,VWS V14.01,2013-04-23 10:39:00,
2013-04-23 05:40:00,57.3,48.7,29.84,SE,145,7.0,10.0,73,0.00,,---,0.00,VWS V14.01,2013-04-23 10:40:00,
2013-04-23 05:41:00,57.3,48.7,29.84,SSE,156,7.0,10.0,73,0.00,,---,0.00,VWS V14.01,2013-04-23 10:41:00,
2013-04-23 05:43:00,57.3,48.7,29.84,SSE,163,8.0,11.0,73,0.00,,---,0.00,VWS V14.01,2013-04-23 10:43:00,
2013-04-23 05:44:00,57.3,48.7,29.84,SSE,155,9.0,11.0,73,0.00,,---,0.00,VWS V14.01,2013-04-23 10:44:00,
2013-04-23 05:45:00,57.3,48.7,29.84,SSE,159,6.0,11.0,73,0.00,,---,0.00,VWS V14.01,2013-04-23 10:45:00,
2013-04-23 05:46:00,57.2,48.6,29.84,SSE,159,5.0,11.0,73,0.00,,---,0.00,VWS V14.01,2013-04-23 10:46:00,
2013-04-23 05:48:00,57.2,49.0,29.84,SSE,167,5.0,11.0,74,0.00,,---,0.00,VWS V14.01,2013-04-23 10:48:00,
2013-04-23 05:49:00,57.1,48.9,29.84,SSE,167,5.0,11.0,74,0.00,,---,0.00,VWS V14.01,2013-04-23 10:49:00,
2013-04-23 05:50:00,57.2,48.6,29.84,SSE,151,6.0,11.0,73,0.00,,---,0.00,VWS V14.01,2013-04-23 10:50:00,
2013-04-23 05:51:00,57.1,48.9,29.84,SSE,159,6.0,11.0,74,0.00,,---,0.00,VWS V14.01,2013-04-23 10:51:00,
2013-04-23 05:53:00,57.1,48.9,29.84,SSE,153,7.0,11.0,74,0.00,,---,0.00,VWS V14.01,2013-04-23 10:53:00,
2013-04-23 05:54:00,57.0,48.8,29.84,SE,144,7.0,11.0,74,0.00,,---,0.00,VWS V14.01,2013-04-23 10:54:00,
2013-04-23 05:55:00,57.0,48.8,29.84,SSE,151,5.0,11.0,74,0.00,,---,0.00,VWS V14.01,2013-04-23 10:55:00,
2013-04-23 05:57:00,57.0,48.8,29.84,South,169,4.0,11.0,74,0.00,,---,0.00,VWS V14.01,2013-04-23 10:57:00,
2013-04-23 05:58:00,57.0,48.8,29.84,SSE,158,6.0,11.0,74,0.00,,---,0.00,VWS V14.01,2013-04-23 10:58:00,
2013-04-23 05:59:00,57.0,48.8,29.84,SSE,157,6.0,11.0,74,0.00,,---,0.00,VWS V14.01,2013-04-23 10:59:00,
2013-04-23 06:00:00,56.9,48.7,29.84,SSE,157,9.0,9.0,74,0.00,,---,0.00,VWS V14.01,2013-04-23 11:00:00,
2013-04-23 06:02:00,57.0,48.8,29.84,SSE,150,7.0,9.0,74,0.00,,---,0.00,VWS V14.01,2013-04-23 11:02:00,
2013-04-23 06:03:00,57.0,48.8,29.85,SSE,165,6.0,9.0,74,0.00,,---,0.00,VWS V14.01,2013-04-23 11:03:00,
2013-04-23 06:05:00,57.0,48.8,29.84,SSW,194,5.0,9.0,74,0.00,,---,0.00,VWS V14.01,2013-04-23 11:05:00,
2013-04-23 06:07:00,57.0,48.8,29.85,South,175,3.0,9.0,74,0.00,,---,0.00,VWS V14.01,2013-04-23 11:07:00,
2013-04-23 06:08:00,57.0,48.8,29.85,SSE,158,5.0,9.0,74,0.00,,---,0.00,VWS V14.01,2013-04-23 11:08:00,
2013-04-23 06:09:00,57.0,48.8,29.84,SSE,150,6.0,9.0,74,0.00,,---,0.00,VWS V14.01,2013-04-23 11:09:00,
2013-04-23 06:10:00,57.0,48.8,29.84,SSE,155,6.0,9.0,74,0.00,,---,0.00,VWS V14.01,2013-04-23 11:10:00,
2013-04-23 06:12:00,57.1,48.9,29.84,SSE,161,5.0,10.0,74,0.00,,---,0.00,VWS V14.01,2013-04-23 11:12:00,
2013-04-23 06:13:00,57.1,48.9,29.84,SSE,153,5.0,10.0,74,0.00,,---,0.00,VWS V14.01,2013-04-23 11:13:00,
2013-04-23 06:14:00,57.1,48.9,29.84,SSE,148,5.0,10.0,74,0.00,,---,0.00,VWS V14.01,2013-04-23 11:14:00,
2013-04-23 06:15:00,57.1,48.9,29.84,SSE,147,6.0,10.0,74,0.00,,---,0.00,VWS V14.01,2013-04-23 11:15:00,
2013-04-23 06:17:00,57.1,48.9,29.84,SSE,163,4.0,10.0,74,0.00,,---,0.00,VWS V14.01,2013-04-23 11:17:00,
2013-04-23 06:18:00,57.1,48.9,29.84,South,174,4.0,10.0,74,0.00,,---,0.00,VWS V14.01,2013-04-23 11:18:00,
2013-04-23 06:19:00,57.2,49.0,29.84,South,182,6.0,10.0,74,0.00,,---,0.00,VWS V14.01,2013-04-23 11:19:00,
2013-04-23 06:20:00,57.1,48.9,29.84,SSE,167,7.0,10.0,74,0.00,,---,0.00,VWS V14.01,2013-04-23 11:20:00,
2013-04-23 06:21:00,57.1,48.5,29.84,SSE,163,6.0,10.0,73,0.00,,---,0.00,VWS V14.01,2013-04-23 11:21:00,
2013-04-23 06:23:00,57.1,48.9,29.84,SSE,154,7.0,10.0,74,0.00,,---,0.00,VWS V14.01,2013-04-23 11:23:00,
2013-04-23 06:24:00,57.1,48.9,29.84,SSE,158,6.0,10.0,74,0.00,,---,0.00,VWS V14.01,2013-04-23 11:24:00,
2013-04-23 06:25:00,57.1,48.9,29.84,SSE,161,6.0,10.0,74,0.00,,---,0.00,VWS V14.01,2013-04-23 11:25:00,
2013-04-23 06:26:00,57.1,48.9,29.84,SSE,160,5.0,10.0,74,0.00,,---,0.00,VWS V14.01,2013-04-23 11:26:00,
2013-04-23 06:28:00,57.1,48.9,29.84,SSE,164,7.0,10.0,74,0.00,,---,0.00,VWS V14.01,2013-04-23 11:28:00,
2013-04-23 06:29:00,57.1,48.9,29.84,SSE,159,5.0,10.0,74,0.00,,---,0.00,VWS V14.01,2013-04-23 11:29:00,
2013-04-23 06:30:00,57.0,48.8,29.84,SSE,164,5.0,7.0,74,0.00,,---,0.00,VWS V14.01,2013-04-23 11:30:00,
2013-04-23 06:31:00,57.0,48.8,29.84,SSE,167,5.0,7.0,74,0.00,,---,0.00,VWS V14.01,2013-04-23 11:31:00,
2013-04-23 06:33:00,57.0,48.8,29.84,South,190,7.0,11.0,74,0.00,,---,0.00,VWS V14.01,2013-04-23 11:33:00,
2013-04-23 06:34:00,57.0,48.8,29.84,South,169,4.0,11.0,74,0.00,,---,0.00,VWS V14.01,2013-04-23 11:34:00,
2013-04-23 06:35:00,56.9,48.7,29.84,SSE,162,6.0,11.0,74,0.00,,---,0.00,VWS V14.01,2013-04-23 11:35:00,
2013-04-23 06:36:00,56.9,48.7,29.84,SSE,162,6.0,11.0,74,0.00,,---,0.00,VWS V14.01,2013-04-23 11:36:00,
2013-04-23 06:38:00,56.9,48.7,29.84,SSE,159,7.0,11.0,74,0.00,,---,0.00,VWS V14.01,2013-04-23 11:38:00,
2013-04-23 06:39:00,56.9,48.7,29.84,SSE,167,7.0,11.0,74,0.00,,---,0.00,VWS V14.01,2013-04-23 11:39:00,
2013-04-23 06:41:00,56.9,48.7,29.84,SSE,162,7.0,11.0,74,0.00,,---,0.00,VWS V14.01,2013-04-23 11:41:00,
2013-04-23 06:43:00,56.9,49.1,29.84,SSE,153,10.0,11.0,75,0.00,,---,0.00,VWS V14.01,2013-04-23 11:43:00,
2013-04-23 06:44:00,56.9,48.7,29.84,SSE,157,10.0,11.0,74,0.00,,---,0.00,VWS V14.01,2013-04-23 11:44:00,
2013-04-23 06:46:00,56.9,49.1,29.83,SSE,165,6.0,11.0,75,0.00,,---,0.00,VWS V14.01,2013-04-23 11:46:00,
2013-04-23 06:48:00,56.8,49.0,29.83,SSE,163,6.0,11.0,75,0.00,,---,0.00,VWS V14.01,2013-04-23 11:48:00,
2013-04-23 06:49:00,56.8,49.0,29.83,SSE,158,5.0,11.0,75,0.00,,---,0.00,VWS V14.01,2013-04-23 11:49:00,
2013-04-23 06:51:00,56.7,48.9,29.83,SSE,150,6.0,11.0,75,0.00,,---,0.00,VWS V14.01,2013-04-23 11:51:00,
2013-04-23 06:54:00,56.7,48.9,29.83,SSE,158,5.0,11.0,75,0.00,,---,0.00,VWS V14.01,2013-04-23 11:54:00,
2013-04-23 06:56:00,56.7,48.9,29.83,SSE,167,4.0,12.0,75,0.00,,---,0.00,VWS V14.01,2013-04-23 11:56:00,
2013-04-23 06:59:00,56.6,48.8,29.83,SSE,166,8.0,12.0,75,0.00,,---,0.00,VWS V14.01,2013-04-23 11:59:00,
2013-04-23 07:01:00,56.6,48.8,29.83,SSE,157,10.0,10.0,75,0.00,,---,0.00,VWS V14.01,2013-04-23 12:01:00,
2013-04-23 07:04:00,56.7,48.9,29.83,SSE,165,4.0,11.0,75,0.00,,---,0.00,VWS V14.01,2013-04-23 12:04:00,
2013-04-23 07:06:00,56.7,48.9,29.83,South,174,11.0,11.0,75,0.00,,---,0.00,VWS V14.01,2013-04-23 12:06:00,
2013-04-23 07:07:00,56.7,48.9,29.83,South,174,11.0,11.0,75,0.00,,---,0.00,VWS V14.01,2013-04-23 12:07:00,
2013-04-23 07:09:00,56.8,49.0,29.83,SSE,168,7.0,12.0,75,0.00,,---,0.00,VWS V14.01,2013-04-23 12:09:00,
2013-04-23 07:10:00,56.8,49.0,29.83,South,173,6.0,12.0,75,0.00,,---,0.00,VWS V14.01,2013-04-23 12:10:00,
2013-04-23 07:11:00,56.8,49.0,29.83,SSE,153,11.0,12.0,75,0.00,,---,0.00,VWS V14.01,2013-04-23 12:11:00,
2013-04-23 07:12:00,56.8,49.0,29.83,South,175,5.0,12.0,75,0.00,,---,0.00,VWS V14.01,2013-04-23 12:12:00,
2013-04-23 07:14:00,56.7,48.9,29.83,South,181,5.0,12.0,75,0.00,,---,0.00,VWS V14.01,2013-04-23 12:14:00,
2013-04-23 07:15:00,56.7,48.9,29.83,South,175,6.0,12.0,75,0.00,,---,0.00,VWS V14.01,2013-04-23 12:15:00,
2013-04-23 07:17:00,56.7,48.9,29.83,South,174,6.0,12.0,75,0.00,,---,0.00,VWS V14.01,2013-04-23 12:17:00,
2013-04-23 07:19:00,56.8,49.0,29.83,SSE,167,7.0,12.0,75,0.00,,---,0.00,VWS V14.01,2013-04-23 12:19:00,
2013-04-23 07:20:00,56.8,49.0,29.83,South,180,4.0,12.0,75,0.00,,---,0.00,VWS V14.01,2013-04-23 12:20:00,
2013-04-23 07:22:00,56.9,49.1,29.83,South,178,4.0,12.0,75,0.00,,---,0.00,VWS V14.01,2013-04-23 12:22:00,
2013-04-23 07:25:00,56.8,49.0,29.83,SSE,166,10.0,12.0,75,0.00,,---,0.00,VWS V14.01,2013-04-23 12:25:00,
2013-04-23 07:27:00,56.8,49.0,29.84,South,169,9.0,12.0,75,0.00,,---,0.00,VWS V14.01,2013-04-23 12:27:00,
2013-04-23 07:30:00,57.0,49.2,29.84,South,173,5.0,12.0,75,0.00,,---,0.00,VWS V14.01,2013-04-23 12:30:00,
2013-04-23 07:32:00,57.0,49.2,29.84,South,190,6.0,9.0,75,0.00,,---,0.00,VWS V14.01,2013-04-23 12:32:00,
2013-04-23 07:35:00,56.9,49.1,29.84,SSW,192,7.0,13.0,75,0.00,,---,0.00,VWS V14.01,2013-04-23 12:35:00,
2013-04-23 07:37:00,56.9,49.1,29.84,SSW,209,6.0,13.0,75,0.00,,---,0.00,VWS V14.01,2013-04-23 12:37:00,
2013-04-23 07:40:00,56.9,49.1,29.84,SSW,208,3.0,14.0,75,0.00,,---,0.00,VWS V14.01,2013-04-23 12:40:00,
2013-04-23 07:42:00,56.8,49.0,29.84,SSE,165,6.0,14.0,75,0.00,,---,0.00,VWS V14.01,2013-04-23 12:42:00,
2013-04-23 07:43:00,56.8,49.0,29.84,SSE,165,6.0,14.0,75,0.00,,---,0.00,VWS V14.01,2013-04-23 12:43:00,
2013-04-23 07:45:00,56.8,49.3,29.84,South,180,5.0,14.0,76,0.00,,---,0.00,VWS V14.01,2013-04-23 12:45:00,
2013-04-23 07:46:00,56.7,49.2,29.84,South,186,8.0,14.0,76,0.00,,---,0.00,VWS V14.01,2013-04-23 12:46:00,
2013-04-23 07:48:00,56.7,49.2,29.84,South,173,5.0,14.0,76,0.00,,---,0.00,VWS V14.01,2013-04-23 12:48:00,
2013-04-23 07:50:00,56.7,49.2,29.84,SSW,200,7.0,14.0,76,0.00,,---,0.00,VWS V14.01,2013-04-23 12:50:00,
2013-04-23 07:51:00,56.6,49.1,29.84,SSW,197,7.0,14.0,76,0.00,,---,0.00,VWS V14.01,2013-04-23 12:51:00,
2013-04-23 07:53:00,56.7,49.2,29.84,South,181,6.0,14.0,76,0.00,,---,0.00,VWS V14.01,2013-04-23 12:53:00,
2013-04-23 07:55:00,56.7,49.2,29.84,South,183,8.0,14.0,76,0.00,,---,0.00,VWS V14.01,2013-04-23 12:55:00,
2013-04-23 07:56:00,56.7,49.2,29.84,South,182,5.0,14.0,76,0.00,,---,0.00,VWS V14.01,2013-04-23 12:56:00,
2013-04-23 07:58:00,56.6,49.5,29.84,South,180,6.0,14.0,77,0.00,,---,0.00,VWS V14.01,2013-04-23 12:58:00,
2013-04-23 08:01:00,56.4,49.6,29.85,SW,223,3.0,4.0,78,0.00,,---,0.00,VWS V14.01,2013-04-23 13:01:00,
2013-04-23 08:03:00,56.0,50.3,29.86,West,279,6.0,10.0,81,0.00,,---,0.00,VWS V14.01,2013-04-23 13:03:00,
2013-04-23 08:06:00,55.3,49.9,29.86,West,259,9.0,11.0,82,0.00,,---,0.00,VWS V14.01,2013-04-23 13:06:00,
2013-04-23 08:08:00,55.1,49.7,29.86,WNW,288,8.0,11.0,82,0.00,,---,0.00,VWS V14.01,2013-04-23 13:08:00,
2013-04-23 08:11:00,54.8,50.1,29.87,West,263,5.0,11.0,84,0.00,,---,0.00,VWS V14.01,2013-04-23 13:11:00,
2013-04-23 08:12:00,54.8,50.1,29.87,West,271,4.0,11.0,84,0.00,,---,0.00,VWS V14.01,2013-04-23 13:12:00,
2013-04-23 08:13:00,54.7,50.0,29.87,West,274,5.0,11.0,84,0.00,,---,0.00,VWS V14.01,2013-04-23 13:13:00,
2013-04-23 08:16:00,54.7,50.3,29.87,West,274,7.0,11.0,85,0.00,,---,0.00,VWS V14.01,2013-04-23 13:16:00,
2013-04-23 08:17:00,54.7,50.0,29.87,West,261,5.0,11.0,84,0.00,,---,0.00,VWS V14.01,2013-04-23 13:17:00,
2013-04-23 08:18:00,54.7,50.3,29.87,WSW,256,7.0,11.0,85,0.00,,---,0.00,VWS V14.01,2013-04-23 13:18:00,
2013-04-23 08:22:00,54.6,50.5,29.87,West,271,4.0,11.0,86,0.00,,---,0.00,VWS V14.01,2013-04-23 13:22:00,
2013-04-23 08:23:00,54.6,50.5,29.87,West,270,4.0,11.0,86,0.00,,---,0.00,VWS V14.01,2013-04-23 13:23:00,
2013-04-23 08:24:00,54.6,50.5,29.87,West,265,4.0,11.0,86,0.00,,---,0.00,VWS V14.01,2013-04-23 13:24:00,
2013-04-23 08:27:00,54.5,50.7,29.87,West,268,4.0,11.0,87,0.01,,---,0.01,VWS V14.01,2013-04-23 13:27:00,
2013-04-23 08:28:00,54.5,50.7,29.87,West,265,4.0,11.0,87,0.01,,---,0.01,VWS V14.01,2013-04-23 13:28:00,
2013-04-23 08:29:00,54.5,50.7,29.88,West,267,4.0,11.0,87,0.01,,---,0.01,VWS V14.01,2013-04-23 13:29:00,
2013-04-23 08:32:00,54.5,50.7,29.88,West,275,10.0,13.0,87,0.01,,---,0.01,VWS V14.01,2013-04-23 13:32:00,
2013-04-23 08:33:00,54.5,50.7,29.88,WNW,290,9.0,13.0,87,0.01,,---,0.01,VWS V14.01,2013-04-23 13:33:00,
2013-04-23 08:34:00,54.6,50.8,29.88,WNW,287,7.0,13.0,87,0.01,,---,0.01,VWS V14.01,2013-04-23 13:34:00,
2013-04-23 08:38:00,54.4,50.6,29.88,NW,308,7.0,13.0,87,0.01,,---,0.01,VWS V14.01,2013-04-23 13:38:00,
2013-04-23 08:39:00,54.3,50.2,29.88,NW,315,9.0,13.0,86,0.01,,---,0.01,VWS V14.01,2013-04-23 13:39:00,
2013-04-23 08:43:00,54.0,50.2,29.88,WNW,296,6.0,13.0,87,0.01,,---,0.01,VWS V14.01,2013-04-23 13:43:00,
2013-04-23 08:44:00,54.0,50.2,29.88,WNW,292,4.0,13.0,87,0.01,,---,0.01,VWS V14.01,2013-04-23 13:44:00,
2013-04-23 08:48:00,53.7,50.5,29.88,NW,321,5.0,13.0,89,0.01,,---,0.01,VWS V14.01,2013-04-23 13:48:00,
2013-04-23 08:49:00,53.7,50.5,29.88,WNW,293,3.0,13.0,89,0.01,,---,0.01,VWS V14.01,2013-04-23 13:49:00,
2013-04-23 08:53:00,53.6,50.4,29.88,NW,319,4.0,13.0,89,0.02,,---,0.02,VWS V14.01,2013-04-23 13:53:00,
2013-04-23 08:54:00,53.6,50.4,29.88,WNW,299,3.0,13.0,89,0.02,,---,0.02,VWS V14.01,2013-04-23 13:54:00,
2013-04-23 08:58:00,53.4,50.5,29.88,NNW,332,2.0,13.0,90,0.02,,---,0.02,VWS V14.01,2013-04-23 13:58:00,
2013-04-23 08:59:00,53.4,50.5,29.88,NNW,333,2.0,13.0,90,0.02,,---,0.02,VWS V14.01,2013-04-23 13:59:00,
2013-04-23 09:00:00,53.4,50.5,29.88,NNW,334,2.0,13.0,90,0.02,,---,0.02,VWS V14.01,2013-04-23 14:00:00,
2013-04-23 09:03:00,53.3,50.5,29.88,North,355,3.0,8.0,90,0.02,,---,0.02,VWS V14.01,2013-04-23 14:03:00,
2013-04-23 09:04:00,53.3,50.5,29.88,NNW,344,4.0,8.0,90,0.02,,---,0.02,VWS V14.01,2013-04-23 14:04:00,
2013-04-23 09:05:00,53.3,50.2,29.88,NW,316,4.0,8.0,89,0.02,,---,0.02,VWS V14.01,2013-04-23 14:05:00,
2013-04-23 09:08:00,53.1,50.0,29.88,NNW,340,3.0,8.0,89,0.02,,---,0.02,VWS V14.01,2013-04-23 14:08:00,
2013-04-23 09:09:00,53.1,50.0,29.88,NNW,327,4.0,8.0,89,0.02,,---,0.02,VWS V14.01,2013-04-23 14:09:00,
2013-04-23 09:10:00,53.0,49.8,29.88,NNW,329,4.0,8.0,89,0.02,,---,0.02,VWS V14.01,2013-04-23 14:10:00,
2013-04-23 09:13:00,53.0,50.2,29.89,NNW,336,0.0,8.0,90,0.02,,---,0.02,VWS V14.01,2013-04-23 14:13:00,
2013-04-23 09:15:00,53.0,50.2,29.89,NNW,336,1.0,8.0,90,0.02,,---,0.02,VWS V14.01,2013-04-23 14:15:00,
2013-04-23 09:18:00,52.9,50.0,29.89,NW,309,1.0,8.0,90,0.02,,---,0.02,VWS V14.01,2013-04-23 14:18:00,
2013-04-23 09:20:00,52.9,50.0,29.89,WNW,302,3.0,8.0,90,0.02,,---,0.02,VWS V14.01,2013-04-23 14:20:00,
2013-04-23 09:23:00,52.8,50.0,29.89,NW,324,1.0,8.0,90,0.02,,---,0.02,VWS V14.01,2013-04-23 14:23:00,
2013-04-23 09:24:00,52.8,50.0,29.89,NW,324,1.0,8.0,90,0.02,,---,0.02,VWS V14.01,2013-04-23 14:24:00,
2013-04-23 09:25:00,52.8,50.0,29.89,NW,308,2.0,8.0,90,0.02,,---,0.02,VWS V14.01,2013-04-23 14:25:00,
2013-04-23 09:29:00,52.8,50.0,29.89,NW,325,4.0,8.0,90,0.02,,---,0.02,VWS V14.01,2013-04-23 14:29:00,
2013-04-23 09:30:00,52.7,49.8,29.89,WNW,290,5.0,8.0,90,0.02,,---,0.02,VWS V14.01,2013-04-23 14:30:00,
2013-04-23 09:34:00,52.7,50.2,29.89,NW,315,2.0,5.0,91,0.01,,---,0.02,VWS V14.01,2013-04-23 14:34:00,
2013-04-23 09:35:00,52.7,50.2,29.89,WNW,289,2.0,5.0,91,0.01,,---,0.02,VWS V14.01,2013-04-23 14:35:00,
2013-04-23 09:36:00,52.6,50.0,29.89,NW,317,2.0,5.0,91,0.01,,---,0.02,VWS V14.01,2013-04-23 14:36:00,
2013-04-23 09:39:00,52.4,49.8,29.89,NW,306,6.0,6.0,91,0.02,,---,0.03,VWS V14.01,2013-04-23 14:39:00,
2013-04-23 09:40:00,52.3,49.8,29.89,WNW,286,7.0,7.0,91,0.02,,---,0.03,VWS V14.01,2013-04-23 14:40:00,
2013-04-23 09:41:00,52.1,49.6,29.89,WNW,286,3.0,7.0,91,0.02,,---,0.03,VWS V14.01,2013-04-23 14:41:00,
2013-04-23 09:44:00,51.5,49.0,29.89,NW,325,5.0,9.0,91,0.02,,---,0.03,VWS V14.01,2013-04-23 14:44:00,
2013-04-23 09:45:00,51.4,48.9,29.89,WNW,284,3.0,9.0,91,0.02,,---,0.03,VWS V14.01,2013-04-23 14:45:00,
2013-04-23 09:46:00,51.3,48.8,29.89,WNW,290,7.0,9.0,91,0.02,,---,0.03,VWS V14.01,2013-04-23 14:46:00,
2013-04-23 09:47:00,51.1,48.9,29.89,WNW,292,5.0,9.0,92,0.02,,---,0.03,VWS V14.01,2013-04-23 14:47:00,
2013-04-23 09:50:00,50.9,48.7,29.89,WNW,298,3.0,9.0,92,0.02,,---,0.03,VWS V14.01,2013-04-23 14:50:00,
2013-04-23 09:51:00,50.8,48.8,29.89,WNW,302,7.0,9.0,93,0.02,,---,0.03,VWS V14.01,2013-04-23 14:51:00,
2013-04-23 09:52:00,50.7,48.8,29.89,WNW,292,7.0,9.0,93,0.03,,---,0.04,VWS V14.01,2013-04-23 14:52:00,
2013-04-23 09:55:00,50.5,48.6,29.89,WNW,292,6.0,9.0,93,0.03,,---,0.04,VWS V14.01,2013-04-23 14:55:00,
2013-04-23 09:56:00,50.5,48.6,29.89,WNW,292,3.0,9.0,93,0.03,,---,0.04,VWS V14.01,2013-04-23 14:56:00,
2013-04-23 09:57:00,50.5,48.6,29.89,NNW,330,4.0,9.0,93,0.03,,---,0.04,VWS V14.01,2013-04-23 14:57:00,
2013-04-23 10:00:00,50.4,48.7,29.89,WNW,287,5.0,9.0,94,0.03,,---,0.04,VWS V14.01,2013-04-23 15:00:00,
2013-04-23 10:01:00,50.3,48.6,29.89,WNW,295,5.0,6.0,94,0.02,,---,0.04,VWS V14.01,2013-04-23 15:01:00,
2013-04-23 10:02:00,50.3,48.6,29.89,WNW,298,2.0,6.0,94,0.02,,---,0.04,VWS V14.01,2013-04-23 15:02:00,
2013-04-23 10:05:00,50.3,48.6,29.89,WNW,294,1.0,6.0,94,0.03,,---,0.05,VWS V14.01,2013-04-23 15:05:00,
2013-04-23 10:06:00,50.4,48.7,29.89,WNW,296,3.0,6.0,94,0.03,,---,0.05,VWS V14.01,2013-04-23 15:06:00,
2013-04-23 10:07:00,50.4,48.7,29.89,WNW,286,4.0,6.0,94,0.03,,---,0.05,VWS V14.01,2013-04-23 15:07:00,
2013-04-23 10:10:00,50.4,48.7,29.89,NW,319,6.0,6.0,94,0.03,,---,0.05,VWS V14.01,2013-04-23 15:10:00,
2013-04-23 10:11:00,50.4,48.7,29.89,NW,309,4.0,6.0,94,0.03,,---,0.05,VWS V14.01,2013-04-23 15:11:00,
2013-04-23 10:12:00,50.4,48.7,29.89,NW,312,3.0,6.0,94,0.03,,---,0.05,VWS V14.01,2013-04-23 15:12:00,
2013-04-23 10:13:00,50.4,48.7,29.88,NW,305,6.0,6.0,94,0.03,,---,0.05,VWS V14.01,2013-04-23 15:13:00,
2013-04-23 10:15:00,50.4,48.7,29.89,NNW,331,3.0,10.0,94,0.04,,---,0.06,VWS V14.01,2013-04-23 15:15:00,
2013-04-23 10:16:00,50.4,48.7,29.89,NW,311,4.0,10.0,94,0.04,,---,0.06,VWS V14.01,2013-04-23 15:16:00,
2013-04-23 10:17:00,50.4,48.7,29.89,North,360,3.0,10.0,94,0.04,,---,0.06,VWS V14.01,2013-04-23 15:17:00,
2013-04-23 10:18:00,50.5,48.8,29.89,NW,321,4.0,10.0,94,0.04,,---,0.06,VWS V14.01,2013-04-23 15:18:00,
2013-04-23 10:20:00,50.5,48.8,29.89,NNW,327,4.0,10.0,94,0.04,,---,0.06,VWS V14.01,2013-04-23 15:20:00,
2013-04-23 10:21:00,50.5,48.8,29.89,NNW,342,4.0,10.0,94,0.04,,---,0.06,VWS V14.01,2013-04-23 15:21:00,
2013-04-23 10:22:00,50.4,48.7,29.89,NNW,327,3.0,10.0,94,0.04,,---,0.06,VWS V14.01,2013-04-23 15:22:00,
2013-04-23 10:23:00,50.4,48.7,29.89,NNW,342,2.0,10.0,94,0.04,,---,0.06,VWS V14.01,2013-04-23 15:23:00,
2013-04-23 10:25:00,50.5,48.8,29.89,NW,326,4.0,10.0,94,0.04,,---,0.06,VWS V14.01,2013-04-23 15:25:00,
2013-04-23 10:26:00,50.5,48.8,29.89,NW,320,3.0,10.0,94,0.04,,---,0.06,VWS V14.01,2013-04-23 15:26:00,
2013-04-23 10:27:00,50.5,48.8,29.89,NNW,334,2.0,10.0,94,0.04,,---,0.06,VWS V14.01,2013-04-23 15:27:00,
2013-04-23 10:28:00,50.5,48.8,29.89,NW,323,2.0,10.0,94,0.04,,---,0.06,VWS V14.01,2013-04-23 15:28:00,
2013-04-23 10:31:00,50.6,48.9,29.89,NW,307,2.0,3.0,94,0.04,,---,0.06,VWS V14.01,2013-04-23 15:31:00,
2013-04-23 10:32:00,50.6,48.9,29.89,NNW,337,2.0,4.0,94,0.04,,---,0.06,VWS V14.01,2013-04-23 15:32:00,
2013-04-23 10:34:00,50.6,48.9,29.89,NW,308,2.0,4.0,94,0.04,,---,0.06,VWS V14.01,2013-04-23 15:34:00,
2013-04-23 10:36:00,50.6,48.9,29.88,NNW,336,1.0,4.0,94,0.04,,---,0.06,VWS V14.01,2013-04-23 15:36:00,
2013-04-23 10:38:00,50.5,48.8,29.88,NNW,328,1.0,4.0,94,0.04,,---,0.06,VWS V14.01,2013-04-23 15:38:00,
2013-04-23 10:39:00,50.5,48.8,29.88,NW,323,1.0,6.0,94,0.04,,---,0.06,VWS V14.01,2013-04-23 15:39:00,
2013-04-23 10:41:00,50.5,48.6,29.88,NNW,331,3.0,6.0,93,0.04,,---,0.06,VWS V14.01,2013-04-23 15:41:00,
2013-04-23 10:42:00,50.4,48.5,29.88,NW,324,4.0,6.0,93,0.04,,---,0.06,VWS V14.01,2013-04-23 15:42:00,
2013-04-23 10:43:00,50.4,48.5,29.88,NW,313,3.0,6.0,93,0.04,,---,0.06,VWS V14.01,2013-04-23 15:43:00,
2013-04-23 10:44:00,50.3,48.4,29.88,North,355,2.0,6.0,93,0.04,,---,0.06,VWS V14.01,2013-04-23 15:44:00,
2013-04-23 10:46:00,50.1,48.2,29.88,NW,320,3.0,6.0,93,0.04,,---,0.06,VWS V14.01,2013-04-23 15:46:00,
2013-04-23 10:47:00,50.2,48.3,29.88,NNW,328,1.0,6.0,93,0.04,,---,0.06,VWS V14.01,2013-04-23 15:47:00,
2013-04-23 10:48:00,50.1,48.2,29.88,NW,326,2.0,6.0,93,0.04,,---,0.06,VWS V14.01,2013-04-23 15:48:00,
2013-04-23 10:50:00,50.1,48.2,29.88,NNW,331,2.0,6.0,93,0.04,,---,0.06,VWS V14.01,2013-04-23 15:50:00,
2013-04-23 10:51:00,50.0,48.1,29.88,West,274,4.0,6.0,93,0.04,,---,0.06,VWS V14.01,2013-04-23 15:51:00,
2013-04-23 10:52:00,50.0,48.1,29.88,WNW,301,5.0,6.0,93,0.04,,---,0.06,VWS V14.01,2013-04-23 15:52:00,
2013-04-23 10:53:00,50.0,48.3,29.88,NNW,330,0.0,6.0,94,0.04,,---,0.06,VWS V14.01,2013-04-23 15:53:00,
2013-04-23 10:55:00,50.1,48.4,29.88,NNW,328,2.0,6.0,94,0.04,,---,0.06,VWS V14.01,2013-04-23 15:55:00,
2013-04-23 10:56:00,50.1,48.4,29.88,NNW,338,2.0,6.0,94,0.04,,---,0.06,VWS V14.01,2013-04-23 15:56:00,
2013-04-23 10:57:00,50.1,48.4,29.88,WNW,285,3.0,6.0,94,0.04,,---,0.06,VWS V14.01,2013-04-23 15:57:00,
2013-04-23 10:58:00,50.0,48.3,29.88,NW,316,2.0,6.0,94,0.04,,---,0.06,VWS V14.01,2013-04-23 15:58:00,
2013-04-23 11:00:00,49.9,48.0,29.88,NNW,334,2.0,6.0,93,0.04,,---,0.06,VWS V14.01,2013-04-23 16:00:00,
2013-04-23 11:01:00,50.0,48.1,29.88,NW,311,1.0,3.0,93,0.02,,---,0.06,VWS V14.01,2013-04-23 16:01:00,
2013-04-23 11:02:00,49.9,48.0,29.88,NW,313,2.0,3.0,93,0.02,,---,0.06,VWS V14.01,2013-04-23 16:02:00,
2013-04-23 11:03:00,49.9,48.0,29.88,NW,325,3.0,3.0,93,0.02,,---,0.06,VWS V14.01,2013-04-23 16:03:00,
2013-04-23 11:05:00,49.7,47.8,29.88,NW,312,3.0,5.0,93,0.03,,---,0.07,VWS V14.01,2013-04-23 16:05:00,
2013-04-23 11:07:00,49.5,47.6,29.88,NW,308,4.0,7.0,93,0.03,,---,0.07,VWS V14.01,2013-04-23 16:07:00,
2013-04-23 11:08:00,49.4,47.5,29.88,NW,309,3.0,7.0,93,0.03,,---,0.07,VWS V14.01,2013-04-23 16:08:00,
2013-04-23 11:11:00,49.1,47.2,29.88,NW,323,4.0,7.0,93,0.03,,---,0.07,VWS V14.01,2013-04-23 16:11:00,
2013-04-23 11:12:00,49.0,47.1,29.88,NW,325,4.0,7.0,93,0.03,,---,0.07,VWS V14.01,2013-04-23 16:12:00,
2013-04-23 11:13:00,49.0,47.1,29.88,NW,319,3.0,7.0,93,0.03,,---,0.07,VWS V14.01,2013-04-23 16:13:00,
2013-04-23 11:14:00,49.0,47.1,29.88,NNW,333,4.0,7.0,93,0.03,,---,0.07,VWS V14.01,2013-04-23 16:14:00,
2013-04-23 11:17:00,48.7,46.8,29.88,NW,323,4.0,9.0,93,0.03,,---,0.07,VWS V14.01,2013-04-23 16:17:00,
2013-04-23 11:18:00,48.6,46.7,29.88,NW,326,5.0,9.0,93,0.03,,---,0.07,VWS V14.01,2013-04-23 16:18:00,
2013-04-23 11:19:00,48.5,46.6,29.88,NNW,327,9.0,9.0,93,0.03,,---,0.07,VWS V14.01,2013-04-23 16:19:00,
2013-04-23 11:22:00,48.2,46.3,29.88,NW,316,4.0,10.0,93,0.03,,---,0.07,VWS V14.01,2013-04-23 16:22:00,
2013-04-23 11:23:00,48.1,46.2,29.88,NW,324,2.0,10.0,93,0.03,,---,0.07,VWS V14.01,2013-04-23 16:23:00,
2013-04-23 11:24:00,48.1,46.2,29.88,West,275,6.0,10.0,93,0.03,,---,0.07,VWS V14.01,2013-04-23 16:24:00,
2013-04-23 11:27:00,48.0,46.1,29.88,NNW,330,4.0,10.0,93,0.03,,---,0.07,VWS V14.01,2013-04-23 16:27:00,
2013-04-23 11:28:00,47.9,46.0,29.88,NW,315,5.0,10.0,93,0.03,,---,0.07,VWS V14.01,2013-04-23 16:28:00,
2013-04-23 11:29:00,47.9,46.0,29.88,NNW,329,4.0,10.0,93,0.03,,---,0.07,VWS V14.01,2013-04-23 16:29:00,
2013-04-23 11:32:00,47.8,46.2,29.88,WNW,294,4.0,7.0,94,0.01,,---,0.07,VWS V14.01,2013-04-23 16:32:00,
2013-04-23 11:33:00,47.8,46.2,29.87,WNW,300,3.0,7.0,94,0.01,,---,0.07,VWS V14.01,2013-04-23 16:33:00,
2013-04-23 11:34:00,47.8,46.2,29.87,WNW,286,6.0,7.0,94,0.01,,---,0.07,VWS V14.01,2013-04-23 16:34:00,
2013-04-23 11:37:00,47.6,46.0,29.87,WNW,292,5.0,10.0,94,0.01,,---,0.07,VWS V14.01,2013-04-23 16:37:00,
2013-04-23 11:38:00,47.6,46.0,29.88,WNW,298,7.0,10.0,94,0.01,,---,0.07,VWS V14.01,2013-04-23 16:38:00,
2013-04-23 11:39:00,47.6,46.0,29.88,WNW,301,4.0,10.0,94,0.01,,---,0.07,VWS V14.01,2013-04-23 16:39:00,
2013-04-23 11:43:00,47.4,45.8,29.87,NW,325,7.0,11.0,94,0.01,,---,0.07,VWS V14.01,2013-04-23 16:43:00,
2013-04-23 11:44:00,47.4,45.8,29.87,North,5,5.0,11.0,94,0.01,,---,0.07,VWS V14.01,2013-04-23 16:44:00,
2013-04-23 11:48:00,47.2,45.6,29.88,West,269,9.0,11.0,94,0.01,,---,0.07,VWS V14.01,2013-04-23 16:48:00,
2013-04-23 11:49:00,47.2,45.6,29.88,NW,314,5.0,11.0,94,0.01,,---,0.07,VWS V14.01,2013-04-23 16:49:00,
2013-04-23 11:53:00,47.1,45.5,29.88,WNW,289,5.0,11.0,94,0.01,,---,0.07,VWS V14.01,2013-04-23 16:53:00,
2013-04-23 11:54:00,47.1,45.5,29.88,NNW,340,3.0,11.0,94,0.01,,---,0.07,VWS V14.01,2013-04-23 16:54:00,
2013-04-23 11:55:00,47.1,45.5,29.88,NW,309,6.0,11.0,94,0.01,,---,0.07,VWS V14.01,2013-04-23 16:55:00,
2013-04-23 11:58:00,46.9,45.3,29.87,NW,325,9.0,11.0,94,0.01,,---,0.07,VWS V14.01,2013-04-23 16:58:00,
2013-04-23 11:59:00,46.8,45.2,29.87,WNW,301,6.0,14.0,94,0.01,,---,0.07,VWS V14.01,2013-04-23 16:59:00,
2013-04-23 12:00:00,46.8,45.2,29.87,WNW,298,6.0,14.0,94,0.01,,---,0.07,VWS V14.01,2013-04-23 17:00:00,
2013-04-23 12:03:00,46.7,45.1,29.87,West,280,5.0,9.0,94,0.02,,---,0.08,VWS V14.01,2013-04-23 17:03:00,
2013-04-23 12:05:00,46.6,45.0,29.87,NNW,331,5.0,9.0,94,0.02,,---,0.08,VWS V14.01,2013-04-23 17:05:00,
2013-04-23 12:08:00,46.5,44.9,29.86,NW,315,5.0,10.0,94,0.02,,---,0.08,VWS V14.01,2013-04-23 17:08:00,
2013-04-23 12:09:00,46.5,44.9,29.86,WNW,298,6.0,10.0,94,0.02,,---,0.08,VWS V14.01,2013-04-23 17:09:00,
2013-04-23 12:10:00,46.5,44.9,29.86,North,355,5.0,10.0,94,0.02,,---,0.08,VWS V14.01,2013-04-23 17:10:00,
2013-04-23 12:13:00,46.3,44.7,29.86,NNW,332,3.0,10.0,94,0.02,,---,0.08,VWS V14.01,2013-04-23 17:13:00,
2013-04-23 12:14:00,46.3,44.7,29.86,North,360,5.0,10.0,94,0.02,,---,0.08,VWS V14.01,2013-04-23 17:14:00,
2013-04-23 12:15:00,46.3,44.7,29.87,NW,311,5.0,10.0,94,0.02,,---,0.08,VWS V14.01,2013-04-23 17:15:00,
2013-04-23 12:16:00,46.3,44.7,29.86,North,351,5.0,10.0,94,0.02,,---,0.08,VWS V14.01,2013-04-23 17:16:00,
2013-04-23 12:19:00,46.1,44.2,29.86,WNW,297,7.0,10.0,93,0.02,,---,0.08,VWS V14.01,2013-04-23 17:19:00,
2013-04-23 12:20:00,46.1,44.5,29.86,NW,313,6.0,10.0,94,0.02,,---,0.08,VWS V14.01,2013-04-23 17:20:00,
2013-04-23 12:21:00,46.1,44.5,29.86,North,355,5.0,10.0,94,0.02,,---,0.08,VWS V14.01,2013-04-23 17:21:00,
2013-04-23 12:24:00,46.1,44.5,29.86,NNW,338,2.0,11.0,94,0.03,,---,0.09,VWS V14.01,2013-04-23 17:24:00,
2013-04-23 12:25:00,46.1,44.5,29.87,North,351,2.0,11.0,94,0.03,,---,0.09,VWS V14.01,2013-04-23 17:25:00,
2013-04-23 12:26:00,46.1,44.5,29.87,NNW,348,7.0,11.0,94,0.03,,---,0.09,VWS V14.01,2013-04-23 17:26:00,
2013-04-23 12:29:00,45.9,44.3,29.87,WNW,300,13.0,13.0,94,0.03,,---,0.09,VWS V14.01,2013-04-23 17:29:00,
2013-04-23 12:30:00,45.8,43.9,29.86,North,360,4.0,13.0,93,0.03,,---,0.09,VWS V14.01,2013-04-23 17:30:00,
2013-04-23 12:31:00,45.8,43.9,29.86,NNW,327,3.0,6.0,93,0.02,,---,0.09,VWS V14.01,2013-04-23 17:31:00,
2013-04-23 12:35:00,45.6,44.0,29.87,North,355,10.0,10.0,94,0.02,,---,0.09,VWS V14.01,2013-04-23 17:35:00,
2013-04-23 12:36:00,45.5,43.6,29.87,NNW,340,4.0,10.0,93,0.02,,---,0.09,VWS V14.01,2013-04-23 17:36:00,
2013-04-23 12:40:00,45.2,43.3,29.87,NNW,340,3.0,11.0,93,0.02,,---,0.09,VWS V14.01,2013-04-23 17:40:00,
2013-04-23 12:41:00,45.2,43.3,29.87,NW,319,5.0,11.0,93,0.02,,---,0.09,VWS V14.01,2013-04-23 17:41:00,
2013-04-23 12:45:00,45.2,43.6,29.87,North,5,5.0,11.0,94,0.02,,---,0.09,VWS V14.01,2013-04-23 17:45:00,
2013-04-23 12:46:00,45.1,43.5,29.87,NNW,338,7.0,11.0,94,0.02,,---,0.09,VWS V14.01,2013-04-23 17:46:00,
2013-04-23 12:47:00,45.1,43.5,29.87,NW,323,2.0,11.0,94,0.03,,---,0.10,VWS V14.01,2013-04-23 17:47:00,
2013-04-23 12:50:00,45.0,43.4,29.88,NW,317,9.0,11.0,94,0.03,,---,0.10,VWS V14.01,2013-04-23 17:50:00,
2013-04-23 12:51:00,45.0,43.4,29.88,NW,321,7.0,11.0,94,0.03,,---,0.10,VWS V14.01,2013-04-23 17:51:00,
2013-04-23 12:52:00,45.0,43.4,29.88,NNW,343,5.0,11.0,94,0.03,,---,0.10,VWS V14.01,2013-04-23 17:52:00,
2013-04-23 12:55:00,44.9,43.3,29.89,WNW,290,5.0,11.0,94,0.04,,---,0.11,VWS V14.01,2013-04-23 17:55:00,
2013-04-23 12:56:00,44.9,43.3,29.89,NW,320,9.0,11.0,94,0.04,,---,0.11,VWS V14.01,2013-04-23 17:56:00,
2013-04-23 12:57:00,44.9,43.3,29.88,NW,323,4.0,11.0,94,0.04,,---,0.11,VWS V14.01,2013-04-23 17:57:00,
2013-04-23 13:00:00,44.8,43.2,29.88,NNW,344,3.0,11.0,94,0.05,,---,0.12,VWS V14.01,2013-04-23 18:00:00,
2013-04-23 13:01:00,44.7,43.1,29.88,NNW,348,10.0,10.0,94,0.05,,---,0.12,VWS V14.01,2013-04-23 18:01:00,
2013-04-23 13:02:00,44.7,43.1,29.88,North,5,5.0,10.0,94,0.05,,---,0.12,VWS V14.01,2013-04-23 18:02:00,
2013-04-23 13:05:00,44.6,43.0,29.85,North,9,4.0,10.0,94,0.05,,---,0.12,VWS V14.01,2013-04-23 18:05:00,
2013-04-23 13:07:00,44.5,42.9,29.84,NNE,18,5.0,10.0,94,0.05,,---,0.12,VWS V14.01,2013-04-23 18:07:00,
2013-04-23 13:10:00,44.4,42.8,29.84,NNW,345,9.0,10.0,94,0.05,,---,0.12,VWS V14.01,2013-04-23 18:10:00,
2013-04-23 13:12:00,44.3,42.4,29.84,NNW,348,5.0,10.0,93,0.05,,---,0.12,VWS V14.01,2013-04-23 18:12:00,
2013-04-23 13:13:00,44.2,42.3,29.84,NNW,332,5.0,11.0,93,0.05,,---,0.12,VWS V14.01,2013-04-23 18:13:00,
2013-04-23 13:15:00,44.2,42.6,29.84,North,11,7.0,11.0,94,0.05,,---,0.12,VWS V14.01,2013-04-23 18:15:00,
2013-04-23 13:17:00,44.2,42.6,29.84,NNE,17,5.0,11.0,94,0.05,,---,0.12,VWS V14.01,2013-04-23 18:17:00,
2013-04-23 13:18:00,44.2,42.6,29.84,NNE,21,5.0,11.0,94,0.05,,---,0.12,VWS V14.01,2013-04-23 18:18:00,
2013-04-23 13:20:00,44.2,42.6,29.83,North,5,7.0,11.0,94,0.06,,---,0.13,VWS V14.01,2013-04-23 18:20:00,
2013-04-23 13:22:00,44.2,42.6,29.84,NNE,23,10.0,12.0,94,0.06,,---,0.13,VWS V14.01,2013-04-23 18:22:00,
2013-04-23 13:23:00,44.2,42.6,29.83,NNE,26,5.0,12.0,94,0.06,,---,0.13,VWS V14.01,2013-04-23 18:23:00,
2013-04-23 13:25:00,44.1,42.2,29.83,North,355,4.0,14.0,93,0.06,,---,0.13,VWS V14.01,2013-04-23 18:25:00,
2013-04-23 13:27:00,44.0,42.1,29.83,North,350,4.0,14.0,93,0.06,,---,0.13,VWS V14.01,2013-04-23 18:27:00,
2013-04-23 13:28:00,44.0,42.4,29.83,NNW,346,5.0,14.0,94,0.06,,---,0.13,VWS V14.01,2013-04-23 18:28:00,
2013-04-23 13:30:00,43.9,42.0,29.83,North,355,5.0,5.0,93,0.04,,---,0.13,VWS V14.01,2013-04-23 18:30:00,
2013-04-23 13:32:00,43.9,42.3,29.83,North,351,2.0,5.0,94,0.04,,---,0.13,VWS V14.01,2013-04-23 18:32:00,
2013-04-23 13:33:00,43.9,42.3,29.83,North,360,3.0,5.0,94,0.04,,---,0.13,VWS V14.01,2013-04-23 18:33:00,
2013-04-23 13:34:00,43.9,42.3,29.83,North,11,6.0,6.0,94,0.04,,---,0.13,VWS V14.01,2013-04-23 18:34:00,
2013-04-23 13:35:00,43.9,42.3,29.83,NW,323,6.0,7.0,94,0.04,,---,0.13,VWS V14.01,2013-04-23 18:35:00,
2013-04-23 13:37:00,43.8,42.2,29.83,NNE,15,4.0,7.0,94,0.04,,---,0.13,VWS V14.01,2013-04-23 18:37:00,
2013-04-23 13:38:00,43.8,42.2,29.83,North,355,6.0,7.0,94,0.04,,---,0.13,VWS V14.01,2013-04-23 18:38:00,
2013-04-23 13:39:00,43.7,41.8,29.83,North,360,7.0,8.0,93,0.04,,---,0.13,VWS V14.01,2013-04-23 18:39:00,
2013-04-23 13:41:00,43.6,41.7,29.83,North,355,3.0,8.0,93,0.04,,---,0.13,VWS V14.01,2013-04-23 18:41:00,
2013-04-23 13:42:00,43.6,41.7,29.83,NNE,24,13.0,13.0,93,0.04,,---,0.13,VWS V14.01,2013-04-23 18:42:00,
2013-04-23 13:43:00,43.6,41.7,29.83,NNE,23,6.0,13.0,93,0.04,,---,0.13,VWS V14.01,2013-04-23 18:43:00,
2013-04-23 13:44:00,43.5,41.9,29.83,NNE,17,6.0,13.0,94,0.04,,---,0.13,VWS V14.01,2013-04-23 18:44:00,
2013-04-23 13:46:00,43.4,41.8,29.82,North,11,7.0,13.0,94,0.04,,---,0.13,VWS V14.01,2013-04-23 18:46:00,
2013-04-23 13:47:00,43.4,41.8,29.83,NNE,16,4.0,13.0,94,0.04,,---,0.13,VWS V14.01,2013-04-23 18:47:00,
2013-04-23 13:48:00,43.4,41.8,29.83,NNW,347,4.0,13.0,94,0.04,,---,0.13,VWS V14.01,2013-04-23 18:48:00,
2013-04-23 13:49:00,43.4,41.8,29.83,North,355,10.0,13.0,94,0.04,,---,0.13,VWS V14.01,2013-04-23 18:49:00,
2013-04-23 13:52:00,43.6,42.0,29.83,NNW,344,2.0,13.0,94,0.04,,---,0.13,VWS V14.01,2013-04-23 18:52:00,
2013-04-23 13:53:00,43.6,42.0,29.83,North,355,7.0,13.0,94,0.04,,---,0.13,VWS V14.01,2013-04-23 18:53:00,
2013-04-23 13:54:00,43.7,42.1,29.83,North,5,3.0,13.0,94,0.04,,---,0.13,VWS V14.01,2013-04-23 18:54:00,
2013-04-23 13:57:00,43.8,42.2,29.83,NNE,22,2.0,13.0,94,0.04,,---,0.13,VWS V14.01,2013-04-23 18:57:00,
2013-04-23 13:58:00,43.9,42.3,29.83,NNW,344,4.0,13.0,94,0.04,,---,0.13,VWS V14.01,2013-04-23 18:58:00,
2013-04-23 14:00:00,43.9,42.3,29.82,North,355,3.0,13.0,94,0.04,,---,0.13,VWS V14.01,2013-04-23 19:00:00,
2013-04-23 14:02:00,44.0,42.4,29.82,North,360,3.0,7.0,94,0.01,,---,0.13,VWS V14.01,2013-04-23 19:02:00,
2013-04-23 14:03:00,44.1,42.5,29.82,North,5,3.0,7.0,94,0.01,,---,0.13,VWS V14.01,2013-04-23 19:03:00,
2013-04-23 14:05:00,44.2,42.6,29.82,NNE,13,5.0,9.0,94,0.01,,---,0.13,VWS V14.01,2013-04-23 19:05:00,
2013-04-23 14:07:00,44.2,42.6,29.82,North,350,8.0,9.0,94,0.01,,---,0.13,VWS V14.01,2013-04-23 19:07:00,
2013-04-23 14:08:00,44.2,42.6,29.82,NNE,17,4.0,9.0,94,0.01,,---,0.13,VWS V14.01,2013-04-23 19:08:00,
2013-04-23 14:11:00,44.3,42.7,29.82,NNW,341,3.0,9.0,94,0.01,,---,0.13,VWS V14.01,2013-04-23 19:11:00,
2013-04-23 14:12:00,44.5,42.9,29.82,North,360,5.0,9.0,94,0.01,,---,0.13,VWS V14.01,2013-04-23 19:12:00,
2013-04-23 14:13:00,44.5,42.9,29.82,NNE,13,5.0,9.0,94,0.01,,---,0.13,VWS V14.01,2013-04-23 19:13:00,
2013-04-23 14:16:00,44.5,42.6,29.82,North,11,4.0,9.0,93,0.01,,---,0.13,VWS V14.01,2013-04-23 19:16:00,
2013-04-23 14:17:00,44.5,42.6,29.82,NNE,15,6.0,10.0,93,0.01,,---,0.13,VWS V14.01,2013-04-23 19:17:00,
2013-04-23 14:18:00,44.4,42.5,29.82,NNE,22,10.0,11.0,93,0.01,,---,0.13,VWS V14.01,2013-04-23 19:18:00,
2013-04-23 14:19:00,44.4,42.5,29.82,NNW,348,10.0,11.0,93,0.01,,---,0.13,VWS V14.01,2013-04-23 19:19:00,
2013-04-23 14:21:00,44.3,42.4,29.82,North,355,7.0,11.0,93,0.01,,---,0.13,VWS V14.01,2013-04-23 19:21:00,
2013-04-23 14:22:00,44.3,42.4,29.82,North,9,3.0,11.0,93,0.01,,---,0.13,VWS V14.01,2013-04-23 19:22:00,
2013-04-23 14:23:00,44.3,42.4,29.82,NNE,15,2.0,11.0,93,0.01,,---,0.13,VWS V14.01,2013-04-23 19:23:00,
2013-04-23 14:24:00,44.3,42.4,29.82,North,360,2.0,11.0,93,0.01,,---,0.13,VWS V14.01,2013-04-23 19:24:00,
2013-04-23 14:27:00,44.2,42.3,29.83,North,360,3.0,11.0,93,0.01,,---,0.13,VWS V14.01,2013-04-23 19:27:00,
2013-04-23 14:28:00,44.1,42.2,29.83,NNE,15,4.0,11.0,93,0.01,,---,0.13,VWS V14.01,2013-04-23 19:28:00,
2013-04-23 14:29:00,44.1,42.2,29.83,NNE,12,5.0,11.0,93,0.01,,---,0.13,VWS V14.01,2013-04-23 19:29:00,
2013-04-23 14:32:00,44.0,42.1,29.83,NNE,29,6.0,10.0,93,0.00,,---,0.13,VWS V14.01,2013-04-23 19:32:00,
2013-04-23 14:33:00,43.9,41.7,29.83,North,350,5.0,10.0,92,0.00,,---,0.13,VWS V14.01,2013-04-23 19:33:00,
2013-04-23 14:34:00,43.9,41.7,29.83,North,355,6.0,10.0,92,0.00,,---,0.13,VWS V14.01,2013-04-23 19:34:00,
2013-04-23 14:37:00,43.6,41.4,29.83,North,9,6.0,10.0,92,0.00,,---,0.13,VWS V14.01,2013-04-23 19:37:00,
2013-04-23 14:38:00,43.5,41.3,29.83,North,355,3.0,10.0,92,0.00,,---,0.13,VWS V14.01,2013-04-23 19:38:00,
2013-04-23 14:39:00,43.5,41.3,29.83,North,355,3.0,10.0,92,0.00,,---,0.13,VWS V14.01,2013-04-23 19:39:00,
2013-04-23 14:42:00,43.4,41.2,29.83,North,360,5.0,10.0,92,0.00,,---,0.13,VWS V14.01,2013-04-23 19:42:00,
2013-04-23 14:44:00,43.3,41.1,29.83,NE,40,6.0,10.0,92,0.00,,---,0.13,VWS V14.01,2013-04-23 19:44:00,
2013-04-23 14:47:00,43.3,41.1,29.83,NNE,28,5.0,10.0,92,0.00,,---,0.13,VWS V14.01,2013-04-23 19:47:00,
2013-04-23 14:49:00,43.3,41.1,29.83,North,355,3.0,11.0,92,0.00,,---,0.13,VWS V14.01,2013-04-23 19:49:00,
2013-04-23 14:52:00,43.2,41.3,29.83,NNW,331,2.0,11.0,93,0.00,,---,0.13,VWS V14.01,2013-04-23 19:52:00,
2013-04-23 14:54:00,43.2,41.3,29.83,NNE,17,5.0,11.0,93,0.00,,---,0.13,VWS V14.01,2013-04-23 19:54:00,
2013-04-23 14:55:00,43.2,41.3,29.83,North,355,2.0,11.0,93,0.00,,---,0.13,VWS V14.01,2013-04-23 19:55:00,
2013-04-23 14:57:00,43.2,41.3,29.83,NNE,15,7.0,11.0,93,0.00,,---,0.13,VWS V14.01,2013-04-23 19:57:00,
2013-04-23 14:58:00,43.2,41.3,29.83,North,11,3.0,11.0,93,0.00,,---,0.13,VWS V14.01,2013-04-23 19:58:00,
2013-04-23 14:59:00,43.2,41.3,29.83,NNW,328,1.0,11.0,93,0.00,,---,0.13,VWS V14.01,2013-04-23 19:59:00,
2013-04-23 15:00:00,43.2,41.3,29.83,NW,304,4.0,11.0,93,0.00,,---,0.13,VWS V14.01,2013-04-23 20:00:00,
2013-04-23 15:02:00,43.2,41.3,29.83,North,351,3.0,5.0,93,0.00,,---,0.13,VWS V14.01,2013-04-23 20:02:00,
2013-04-23 15:03:00,43.2,41.3,29.83,NNE,19,2.0,5.0,93,0.00,,---,0.13,VWS V14.01,2013-04-23 20:03:00,
2013-04-23 15:04:00,43.2,41.3,29.83,NNE,19,2.0,5.0,93,0.00,,---,0.13,VWS V14.01,2013-04-23 20:04:00,
2013-04-23 15:05:00,43.2,41.3,29.83,NNE,19,2.0,5.0,93,0.00,,---,0.13,VWS V14.01,2013-04-23 20:05:00,
2013-04-23 15:07:00,43.3,41.7,29.83,NNW,336,3.0,5.0,94,0.00,,---,0.13,VWS V14.01,2013-04-23 20:07:00,
2013-04-23 15:08:00,43.3,41.7,29.83,NNW,332,4.0,5.0,94,0.00,,---,0.13,VWS V14.01,2013-04-23 20:08:00,
2013-04-23 15:09:00,43.3,41.7,29.83,North,349,2.0,5.0,94,0.01,,---,0.14,VWS V14.01,2013-04-23 20:09:00,
2013-04-23 15:10:00,43.2,41.6,29.83,NNW,348,2.0,5.0,94,0.01,,---,0.14,VWS V14.01,2013-04-23 20:10:00,
2013-04-23 15:13:00,43.1,41.5,29.83,North,351,5.0,5.0,94,0.01,,---,0.14,VWS V14.01,2013-04-23 20:13:00,
2013-04-23 15:15:00,43.1,41.5,29.83,NNE,19,5.0,5.0,94,0.01,,---,0.14,VWS V14.01,2013-04-23 20:15:00,
2013-04-23 15:18:00,43.0,41.4,29.83,NNW,327,3.0,5.0,94,0.02,,---,0.15,VWS V14.01,2013-04-23 20:18:00,
2013-04-23 15:20:00,42.9,41.3,29.83,NNE,12,2.0,5.0,94,0.02,,---,0.15,VWS V14.01,2013-04-23 20:20:00,
2013-04-23 15:23:00,42.8,41.2,29.84,NNW,348,5.0,6.0,94,0.03,,---,0.16,VWS V14.01,2013-04-23 20:23:00,
2013-04-23 15:25:00,42.8,41.5,29.84,NW,323,2.0,7.0,95,0.04,,---,0.17,VWS V14.01,2013-04-23 20:25:00,
2013-04-23 15:28:00,42.7,41.4,29.84,North,5,3.0,7.0,95,0.05,,---,0.18,VWS V14.01,2013-04-23 20:28:00,
2013-04-23 15:30:00,42.6,41.3,29.83,NW,304,4.0,7.0,95,0.06,,---,0.19,VWS V14.01,2013-04-23 20:30:00,
2013-04-23 15:31:00,42.6,41.3,29.83,NW,325,4.0,6.0,95,0.07,,---,0.20,VWS V14.01,2013-04-23 20:31:00,
2013-04-23 15:33:00,42.5,41.2,29.83,North,350,5.0,10.0,95,0.08,,---,0.21,VWS V14.01,2013-04-23 20:33:00,
2013-04-23 15:35:00,42.5,41.2,29.83,NNE,18,4.0,10.0,95,0.09,,---,0.22,VWS V14.01,2013-04-23 20:35:00,
2013-04-23 15:36:00,42.4,41.1,29.83,North,355,6.0,10.0,95,0.09,,---,0.22,VWS V14.01,2013-04-23 20:36:00,
2013-04-23 15:38:00,42.3,41.0,29.83,North,355,3.0,10.0,95,0.11,,---,0.24,VWS V14.01,2013-04-23 20:38:00,
2013-04-23 15:40:00,42.3,41.0,29.83,North,360,5.0,10.0,95,0.11,,---,0.24,VWS V14.01,2013-04-23 20:40:00,
2013-04-23 15:41:00,42.2,40.9,29.83,NW,317,4.0,10.0,95,0.11,,---,0.24,VWS V14.01,2013-04-23 20:41:00,
2013-04-23 15:43:00,42.2,40.9,29.84,North,360,9.0,10.0,95,0.12,,---,0.25,VWS V14.01,2013-04-23 20:43:00,
2013-04-23 15:45:00,42.1,40.8,29.84,NNW,330,7.0,10.0,95,0.12,,---,0.25,VWS V14.01,2013-04-23 20:45:00,
2013-04-23 15:46:00,42.2,40.9,29.84,NW,321,4.0,10.0,95,0.12,,---,0.25,VWS V14.01,2013-04-23 20:46:00,
2013-04-23 15:48:00,42.2,40.9,29.84,NW,317,4.0,10.0,95,0.13,,---,0.26,VWS V14.01,2013-04-23 20:48:00,
2013-04-23 15:50:00,42.2,40.9,29.84,NNW,334,3.0,10.0,95,0.14,,---,0.27,VWS V14.01,2013-04-23 20:50:00,
2013-04-23 15:51:00,42.2,40.9,29.84,North,355,2.0,10.0,95,0.14,,---,0.27,VWS V14.01,2013-04-23 20:51:00,
2013-04-23 15:53:00,42.2,40.9,29.84,NW,304,2.0,10.0,95,0.15,,---,0.28,VWS V14.01,2013-04-23 20:53:00,
2013-04-23 15:54:00,42.2,40.9,29.84,NW,309,2.0,10.0,95,0.15,,---,0.28,VWS V14.01,2013-04-23 20:54:00,
2013-04-23 15:55:00,42.2,40.9,29.84,WNW,301,7.0,10.0,95,0.15,,---,0.28,VWS V14.01,2013-04-23 20:55:00,
2013-04-23 15:56:00,42.2,40.9,29.84,NW,304,6.0,10.0,95,0.15,,---,0.28,VWS V14.01,2013-04-23 20:56:00,
2013-04-23 15:59:00,42.1,40.8,29.84,NNE,22,6.0,10.0,95,0.15,,---,0.28,VWS V14.01,2013-04-23 20:59:00,
2013-04-23 16:01:00,42.0,40.7,29.84,North,355,3.0,5.0,95,0.15,,---,0.28,VWS V14.01,2013-04-23 21:01:00,
2013-04-23 16:04:00,41.9,40.6,29.84,WNW,302,4.0,7.0,95,0.16,,---,0.29,VWS V14.01,2013-04-23 21:04:00,
2013-04-23 16:06:00,41.9,40.6,29.84,NW,306,5.0,7.0,95,0.16,,---,0.29,VWS V14.01,2013-04-23 21:06:00,
2013-04-23 16:07:00,41.8,40.5,29.84,NW,310,6.0,13.0,95,0.16,,---,0.29,VWS V14.01,2013-04-23 21:07:00,
2013-04-23 16:09:00,41.8,40.5,29.85,NNW,345,5.0,13.0,95,0.16,,---,0.29,VWS V14.01,2013-04-23 21:09:00,
2013-04-23 16:10:00,41.8,40.5,29.85,NNE,19,3.0,13.0,95,0.16,,---,0.29,VWS V14.01,2013-04-23 21:10:00,
2013-04-23 16:11:00,41.8,40.5,29.84,NNW,331,2.0,13.0,95,0.16,,---,0.29,VWS V14.01,2013-04-23 21:11:00,
2013-04-23 16:12:00,41.9,40.6,29.84,NW,312,5.0,13.0,95,0.16,,---,0.29,VWS V14.01,2013-04-23 21:12:00,
2013-04-23 16:15:00,41.8,40.5,29.83,NNE,27,3.0,13.0,95,0.17,,---,0.30,VWS V14.01,2013-04-23 21:15:00,
2013-04-23 16:16:00,41.8,40.5,29.83,North,5,5.0,13.0,95,0.18,,---,0.31,VWS V14.01,2013-04-23 21:16:00,
2013-04-23 16:17:00,41.8,40.5,29.83,NNW,336,6.0,13.0,95,0.18,,---,0.31,VWS V14.01,2013-04-23 21:17:00,
2013-04-23 16:20:00,41.7,40.4,29.83,NNW,346,7.0,13.0,95,0.18,,---,0.31,VWS V14.01,2013-04-23 21:20:00,
2013-04-23 16:21:00,41.7,40.4,29.83,NNE,14,5.0,13.0,95,0.19,,---,0.32,VWS V14.01,2013-04-23 21:21:00,
2013-04-23 16:22:00,41.7,40.4,29.83,NNE,13,9.0,13.0,95,0.19,,---,0.32,VWS V14.01,2013-04-23 21:22:00,
2013-04-23 16:25:00,41.7,40.4,29.83,North,5,6.0,13.0,95,0.19,,---,0.32,VWS V14.01,2013-04-23 21:25:00,
2013-04-23 16:26:00,41.6,40.3,29.83,North,5,6.0,13.0,95,0.19,,---,0.32,VWS V14.01,2013-04-23 21:26:00,
2013-04-23 16:27:00,41.6,40.3,29.83,NNE,13,7.0,13.0,95,0.19,,---,0.32,VWS V14.01,2013-04-23 21:27:00,
2013-04-23 16:30:00,41.5,40.2,29.84,NW,325,4.0,13.0,95,0.20,,---,0.33,VWS V14.01,2013-04-23 21:30:00,
2013-04-23 16:32:00,41.5,40.2,29.84,NNW,338,2.0,3.0,95,0.13,,---,0.33,VWS V14.01,2013-04-23 21:32:00,
2013-04-23 16:35:00,41.4,40.1,29.83,NNW,347,6.0,9.0,95,0.13,,---,0.33,VWS V14.01,2013-04-23 21:35:00,
2013-04-23 16:37:00,41.4,40.1,29.84,North,350,5.0,9.0,95,0.14,,---,0.34,VWS V14.01,2013-04-23 21:37:00,
2013-04-23 16:38:00,41.4,40.1,29.84,NW,325,2.0,9.0,95,0.14,,---,0.34,VWS V14.01,2013-04-23 21:38:00,
2013-04-23 16:40:00,41.3,39.7,29.84,WNW,296,6.0,10.0,94,0.14,,---,0.34,VWS V14.01,2013-04-23 21:40:00,
2013-04-23 16:41:00,41.3,39.7,29.85,North,355,5.0,10.0,94,0.14,,---,0.34,VWS V14.01,2013-04-23 21:41:00,
2013-04-23 16:42:00,41.3,40.0,29.85,North,349,4.0,10.0,95,0.14,,---,0.34,VWS V14.01,2013-04-23 21:42:00,
2013-04-23 16:43:00,41.3,40.0,29.85,NW,309,5.0,10.0,95,0.14,,---,0.34,VWS V14.01,2013-04-23 21:43:00,
2013-04-23 16:45:00,41.3,40.0,29.85,NW,314,6.0,10.0,95,0.14,,---,0.34,VWS V14.01,2013-04-23 21:45:00,
2013-04-23 16:46:00,41.3,40.0,29.85,North,355,9.0,12.0,95,0.14,,---,0.34,VWS V14.01,2013-04-23 21:46:00,
2013-04-23 16:47:00,41.3,39.7,29.85,NNW,328,5.0,12.0,94,0.14,,---,0.34,VWS V14.01,2013-04-23 21:47:00,
2013-04-23 16:48:00,41.3,40.0,29.85,NW,323,5.0,12.0,95,0.15,,---,0.35,VWS V14.01,2013-04-23 21:48:00,
2013-04-23 16:50:00,41.3,40.0,29.84,North,355,2.0,12.0,95,0.16,,---,0.36,VWS V14.01,2013-04-23 21:50:00,
2013-04-23 16:51:00,41.3,39.7,29.83,North,350,5.0,12.0,94,0.16,,---,0.36,VWS V14.01,2013-04-23 21:51:00,
2013-04-23 16:52:00,41.2,39.9,29.83,NNW,344,4.0,12.0,95,0.16,,---,0.36,VWS V14.01,2013-04-23 21:52:00,
2013-04-23 16:53:00,41.2,39.9,29.83,North,5,3.0,12.0,95,0.17,,---,0.37,VWS V14.01,2013-04-23 21:53:00,
2013-04-23 16:55:00,41.2,39.9,29.83,NNE,26,7.0,12.0,95,0.18,,---,0.38,VWS V14.01,2013-04-23 21:55:00,
2013-04-23 16:56:00,41.1,39.8,29.83,North,355,3.0,12.0,95,0.18,,---,0.38,VWS V14.01,2013-04-23 21:56:00,
2013-04-23 16:57:00,41.1,39.8,29.83,NNW,341,4.0,12.0,95,0.18,,---,0.38,VWS V14.01,2013-04-23 21:57:00,
2013-04-23 16:58:00,41.1,39.8,29.83,NNW,342,2.0,12.0,95,0.18,,---,0.38,VWS V14.01,2013-04-23 21:58:00,
2013-04-23 17:01:00,41.1,39.8,29.84,NNW,328,3.0,3.0,95,0.10,,---,0.38,VWS V14.01,2013-04-23 22:01:00,
2013-04-23 17:03:00,41.1,39.8,29.84,North,360,3.0,7.0,95,0.10,,---,0.38,VWS V14.01,2013-04-23 22:03:00,
2013-04-23 17:06:00,41.1,39.8,29.84,North,355,5.0,13.0,95,0.10,,---,0.38,VWS V14.01,2013-04-23 22:06:00,
2013-04-23 17:08:00,41.1,39.8,29.84,North,355,10.0,13.0,95,0.10,,---,0.38,VWS V14.01,2013-04-23 22:08:00,
2013-04-23 17:11:00,41.1,39.8,29.84,NNW,344,4.0,13.0,95,0.10,,---,0.38,VWS V14.01,2013-04-23 22:11:00,
2013-04-23 17:12:00,41.1,39.8,29.84,NNW,343,6.0,13.0,95,0.10,,---,0.38,VWS V14.01,2013-04-23 22:12:00,
2013-04-23 17:13:00,41.1,39.8,29.84,WNW,300,4.0,13.0,95,0.10,,---,0.38,VWS V14.01,2013-04-23 22:13:00,
2013-04-23 17:14:00,41.1,39.8,29.84,North,355,10.0,13.0,95,0.10,,---,0.38,VWS V14.01,2013-04-23 22:14:00,
2013-04-23 17:17:00,41.0,39.7,29.85,NW,323,5.0,13.0,95,0.10,,---,0.38,VWS V14.01,2013-04-23 22:17:00,
2013-04-23 17:18:00,41.0,39.7,29.85,NNE,13,5.0,13.0,95,0.10,,---,0.38,VWS V14.01,2013-04-23 22:18:00,
2013-04-23 17:19:00,41.0,39.7,29.85,North,5,5.0,13.0,95,0.10,,---,0.38,VWS V14.01,2013-04-23 22:19:00,
2013-04-23 17:22:00,41.0,39.7,29.84,North,9,5.0,13.0,95,0.10,,---,0.38,VWS V14.01,2013-04-23 22:22:00,
2013-04-23 17:23:00,41.0,39.7,29.84,NW,323,5.0,13.0,95,0.10,,---,0.38,VWS V14.01,2013-04-23 22:23:00,
2013-04-23 17:24:00,41.0,39.7,29.84,North,9,7.0,13.0,95,0.10,,---,0.38,VWS V14.01,2013-04-23 22:24:00,
2013-04-23 17:27:00,41.0,39.7,29.84,NW,324,4.0,13.0,95,0.12,,---,0.40,VWS V14.01,2013-04-23 22:27:00,
2013-04-23 17:28:00,41.0,39.4,29.84,NNE,16,6.0,13.0,94,0.12,,---,0.40,VWS V14.01,2013-04-23 22:28:00,
2013-04-23 17:29:00,41.0,39.4,29.84,NNW,342,6.0,13.0,94,0.12,,---,0.40,VWS V14.01,2013-04-23 22:29:00,
2013-04-23 17:32:00,41.0,39.7,29.84,NW,314,5.0,6.0,95,0.08,,---,0.41,VWS V14.01,2013-04-23 22:32:00,
2013-04-23 17:33:00,41.1,39.8,29.85,NNE,21,7.0,8.0,95,0.08,,---,0.41,VWS V14.01,2013-04-23 22:33:00,
2013-04-23 17:34:00,41.1,39.8,29.85,NNW,347,12.0,13.0,95,0.08,,---,0.41,VWS V14.01,2013-04-23 22:34:00,
2013-04-23 17:37:00,41.0,39.4,29.85,North,5,7.0,13.0,94,0.09,,---,0.42,VWS V14.01,2013-04-23 22:37:00,
2013-04-23 17:39:00,41.0,39.7,29.84,NW,321,4.0,13.0,95,0.09,,---,0.42,VWS V14.01,2013-04-23 22:39:00,
2013-04-23 17:42:00,41.0,39.4,29.85,NW,324,7.0,13.0,94,0.09,,---,0.42,VWS V14.01,2013-04-23 22:42:00,
2013-04-23 17:44:00,40.9,39.3,29.85,North,350,9.0,13.0,94,0.09,,---,0.42,VWS V14.01,2013-04-23 22:44:00,
2013-04-23 17:45:00,40.9,39.3,29.85,NNW,348,4.0,13.0,94,0.09,,---,0.42,VWS V14.01,2013-04-23 22:45:00,
2013-04-23 17:47:00,40.9,39.3,29.85,NW,307,6.0,13.0,94,0.09,,---,0.42,VWS V14.01,2013-04-23 22:47:00,
2013-04-23 17:49:00,40.9,39.3,29.85,NNW,344,6.0,13.0,94,0.09,,---,0.42,VWS V14.01,2013-04-23 22:49:00,
2013-04-23 17:50:00,40.9,39.3,29.85,WNW,288,7.0,13.0,94,0.09,,---,0.42,VWS V14.01,2013-04-23 22:50:00,
2013-04-23 17:52:00,41.0,39.4,29.85,NNW,330,2.0,13.0,94,0.09,,---,0.42,VWS V14.01,2013-04-23 22:52:00,
2013-04-23 17:54:00,41.0,39.7,29.85,North,360,4.0,13.0,95,0.09,,---,0.42,VWS V14.01,2013-04-23 22:54:00,
2013-04-23 17:55:00,41.0,39.7,29.85,North,360,5.0,13.0,95,0.09,,---,0.42,VWS V14.01,2013-04-23 22:55:00,
2013-04-23 17:57:00,40.9,39.6,29.85,NNW,340,2.0,13.0,95,0.09,,---,0.42,VWS V14.01,2013-04-23 22:57:00,
2013-04-23 17:59:00,40.9,39.6,29.85,NNW,334,9.0,13.0,95,0.09,,---,0.42,VWS V14.01,2013-04-23 22:59:00,
2013-04-23 18:00:00,40.9,39.6,29.85,NNW,342,3.0,13.0,95,0.09,,---,0.42,VWS V14.01,2013-04-23 23:00:00,
2013-04-23 18:02:00,40.9,39.3,29.85,NW,324,5.0,9.0,94,0.04,,---,0.42,VWS V14.01,2013-04-23 23:02:00,
2013-04-23 18:03:00,40.9,39.3,29.84,NNW,345,5.0,9.0,94,0.04,,---,0.42,VWS V14.01,2013-04-23 23:03:00,
2013-04-23 18:04:00,40.9,39.3,29.84,North,349,4.0,9.0,94,0.04,,---,0.42,VWS V14.01,2013-04-23 23:04:00,
2013-04-23 18:05:00,40.9,39.3,29.84,North,360,4.0,9.0,94,0.04,,---,0.42,VWS V14.01,2013-04-23 23:05:00,
2013-04-23 18:07:00,40.9,39.3,29.84,North,5,5.0,11.0,94,0.04,,---,0.42,VWS V14.01,2013-04-23 23:07:00,
2013-04-23 18:08:00,40.9,39.3,29.84,North,350,6.0,11.0,94,0.04,,---,0.42,VWS V14.01,2013-04-23 23:08:00,
2013-04-23 18:10:00,40.9,39.3,29.85,North,355,4.0,11.0,94,0.04,,---,0.42,VWS V14.01,2013-04-23 23:10:00,
2013-04-23 18:11:00,40.9,39.3,29.85,NNW,340,3.0,11.0,94,0.04,,---,0.42,VWS V14.01,2013-04-23 23:11:00,
2013-04-23 18:12:00,40.9,39.3,29.86,NW,306,5.0,11.0,94,0.04,,---,0.42,VWS V14.01,2013-04-23 23:12:00,
2013-04-23 18:13:00,40.9,39.3,29.86,NW,306,7.0,11.0,94,0.04,,---,0.42,VWS V14.01,2013-04-23 23:13:00,
2013-04-23 18:15:00,40.9,39.3,29.85,NNW,327,4.0,11.0,94,0.04,,---,0.42,VWS V14.01,2013-04-23 23:15:00,
2013-04-23 18:16:00,40.9,39.3,29.85,North,5,9.0,11.0,94,0.04,,---,0.42,VWS V14.01,2013-04-23 23:16:00,
2013-04-23 18:18:00,40.9,39.3,29.85,NW,323,10.0,11.0,94,0.04,,---,0.42,VWS V14.01,2013-04-23 23:18:00,
2013-04-23 18:19:00,40.9,39.3,29.85,North,5,7.0,11.0,94,0.04,,---,0.42,VWS V14.01,2013-04-23 23:19:00,
2013-04-23 18:20:00,40.9,39.3,29.85,North,5,5.0,11.0,94,0.04,,---,0.42,VWS V14.01,2013-04-23 23:20:00,
2013-04-23 18:21:00,40.9,39.3,29.85,North,9,6.0,11.0,94,0.04,,---,0.42,VWS V14.01,2013-04-23 23:21:00,
2013-04-23 18:22:00,40.9,39.3,29.85,North,360,4.0,11.0,94,0.04,,---,0.42,VWS V14.01,2013-04-23 23:22:00,
2013-04-23 18:23:00,40.8,39.2,29.85,NNW,345,6.0,11.0,94,0.05,,---,0.43,VWS V14.01,2013-04-23 23:23:00,
2013-04-23 18:24:00,40.8,39.2,29.85,NNE,19,4.0,11.0,94,0.05,,---,0.43,VWS V14.01,2013-04-23 23:24:00,
2013-04-23 18:25:00,40.8,39.2,29.85,North,355,6.0,11.0,94,0.05,,---,0.43,VWS V14.01,2013-04-23 23:25:00,
2013-04-23 18:26:00,40.7,39.1,29.85,NNW,335,7.0,11.0,94,0.05,,---,0.43,VWS V14.01,2013-04-23 23:26:00,
2013-04-23 18:27:00,40.7,39.1,29.85,NW,324,4.0,11.0,94,0.05,,---,0.43,VWS V14.01,2013-04-23 23:27:00,
2013-04-23 18:28:00,40.7,39.1,29.85,NNW,337,5.0,11.0,94,0.05,,---,0.43,VWS V14.01,2013-04-23 23:28:00,
2013-04-23 18:29:00,40.7,39.1,29.85,North,350,2.0,11.0,94,0.05,,---,0.43,VWS V14.01,2013-04-23 23:29:00,
2013-04-23 18:30:00,40.7,39.1,29.85,NNW,346,5.0,11.0,94,0.05,,---,0.43,VWS V14.01,2013-04-23 23:30:00,
2013-04-23 18:32:00,40.6,39.0,29.85,North,351,4.0,7.0,94,0.02,,---,0.43,VWS V14.01,2013-04-23 23:32:00,
2013-04-23 18:33:00,40.6,39.0,29.85,North,355,6.0,7.0,94,0.03,,---,0.44,VWS V14.01,2013-04-23 23:33:00,
2013-04-23 18:34:00,40.5,38.9,29.85,NNW,335,4.0,7.0,94,0.03,,---,0.44,VWS V14.01,2013-04-23 23:34:00,
2013-04-23 18:35:00,40.5,39.2,29.85,NNW,335,4.0,10.0,95,0.03,,---,0.44,VWS V14.01,2013-04-23 23:35:00,
2013-04-23 18:37:00,40.5,39.2,29.85,North,355,6.0,10.0,95,0.03,,---,0.44,VWS V14.01,2013-04-23 23:37:00,
2013-04-23 18:38:00,40.4,39.1,29.85,North,350,3.0,12.0,95,0.03,,---,0.44,VWS V14.01,2013-04-23 23:38:00,
2013-04-23 18:39:00,40.4,39.1,29.85,NNW,334,2.0,12.0,95,0.03,,---,0.44,VWS V14.01,2013-04-23 23:39:00,
2013-04-23 18:40:00,40.4,39.1,29.85,North,5,9.0,12.0,95,0.03,,---,0.44,VWS V14.01,2013-04-23 23:40:00,
2013-04-23 18:42:00,40.4,39.1,29.85,WNW,298,4.0,12.0,95,0.03,,---,0.44,VWS V14.01,2013-04-23 23:42:00,
2013-04-23 18:43:00,40.4,39.1,29.85,NNW,347,6.0,12.0,95,0.03,,---,0.44,VWS V14.01,2013-04-23 23:43:00,
2013-04-23 18:44:00,40.3,39.0,29.84,NW,320,5.0,12.0,95,0.03,,---,0.44,VWS V14.01,2013-04-23 23:44:00,
2013-04-23 18:45:00,40.3,39.0,29.84,North,355,4.0,12.0,95,0.03,,---,0.44,VWS V14.01,2013-04-23 23:45:00,
2013-04-23 18:47:00,40.3,39.0,29.84,North,360,5.0,12.0,95,0.03,,---,0.44,VWS V14.01,2013-04-23 23:47:00,
2013-04-23 18:48:00,40.2,38.9,29.84,NNW,344,6.0,14.0,95,0.03,,---,0.44,VWS V14.01,2013-04-23 23:48:00,
2013-04-23 18:50:00,40.2,38.9,29.84,NNW,344,6.0,14.0,95,0.03,,---,0.44,VWS V14.01,2013-04-23 23:50:00,
2013-04-23 18:52:00,40.1,38.5,29.84,North,10,10.0,14.0,94,0.03,,---,0.44,VWS V14.01,2013-04-23 23:52:00,
2013-04-23 18:53:00,40.1,38.5,29.85,North,351,4.0,14.0,94,0.03,,---,0.44,VWS V14.01,2013-04-23 23:53:00,
2013-04-23 18:55:00,40.1,38.5,29.84,NNW,344,10.0,14.0,94,0.03,,---,0.44,VWS V14.01,2013-04-23 23:55:00,
2013-04-23 18:57:00,40.1,38.5,29.84,North,355,12.0,14.0,94,0.03,,---,0.44,VWS V14.01,2013-04-23 23:57:00,
2013-04-23 18:59:00,40.1,38.5,29.84,NNW,327,3.0,14.0,94,0.03,,---,0.44,VWS V14.01,2013-04-23 23:59:00,
2013-04-23 19:00:00,40.1,38.5,29.84,North,355,6.0,14.0,94,0.03,,---,0.44,VWS V14.01,2013-04-24 00:00:00,
2013-04-23 19:02:00,40.1,38.5,29.83,NW,307,7.0,7.0,94,0.02,,---,0.44,VWS V14.01,2013-04-24 00:02:00,
2013-04-23 19:04:00,40.1,38.5,29.83,NNW,347,9.0,9.0,94,0.02,,---,0.44,VWS V14.01,2013-04-24 00:04:00,
2013-04-23 19:05:00,40.1,38.5,29.83,NNW,341,9.0,9.0,94,0.02,,---,0.44,VWS V14.01,2013-04-24 00:05:00,
2013-04-23 19:07:00,40.1,38.5,29.83,West,279,8.0,9.0,94,0.02,,---,0.44,VWS V14.01,2013-04-24 00:07:00,
2013-04-23 19:09:00,40.1,38.5,29.83,North,5,6.0,10.0,94,0.02,,---,0.44,VWS V14.01,2013-04-24 00:09:00,
2013-04-23 19:10:00,40.1,38.5,29.83,NNW,344,7.0,12.0,94,0.02,,---,0.44,VWS V14.01,2013-04-24 00:10:00,
2013-04-23 19:12:00,40.1,38.5,29.83,North,351,4.0,12.0,94,0.02,,---,0.44,VWS V14.01,2013-04-24 00:12:00,
2013-04-23 19:13:00,40.1,38.5,29.83,NNW,348,6.0,12.0,94,0.02,,---,0.44,VWS V14.01,2013-04-24 00:13:00,
2013-04-23 19:14:00,40.1,38.5,29.83,North,349,5.0,12.0,94,0.02,,---,0.44,VWS V14.01,2013-04-24 00:14:00,
2013-04-23 19:15:00,40.1,38.5,29.82,North,360,11.0,12.0,94,0.02,,---,0.44,VWS V14.01,2013-04-24 00:15:00,
2013-04-23 19:16:00,40.1,38.5,29.82,North,355,7.0,12.0,94,0.02,,---,0.44,VWS V14.01,2013-04-24 00:16:00,
2013-04-23 19:17:00,40.1,38.5,29.82,NNW,348,6.0,12.0,94,0.02,,---,0.44,VWS V14.01,2013-04-24 00:17:00,
2013-04-23 19:18:00,40.1,38.5,29.82,North,355,10.0,12.0,94,0.02,,---,0.44,VWS V14.01,2013-04-24 00:18:00,
2013-04-23 19:19:00,40.1,38.5,29.82,North,355,10.0,12.0,94,0.02,,---,0.44,VWS V14.01,2013-04-24 00:19:00,
2013-04-23 19:20:00,40.1,38.5,29.83,NW,317,12.0,12.0,94,0.02,,---,0.44,VWS V14.01,2013-04-24 00:20:00,
2013-04-23 19:21:00,40.1,38.5,29.83,North,360,5.0,12.0,94,0.02,,---,0.44,VWS V14.01,2013-04-24 00:21:00,
2013-04-23 19:22:00,40.1,38.5,29.83,North,350,4.0,12.0,94,0.02,,---,0.44,VWS V14.01,2013-04-24 00:22:00,
2013-04-23 19:23:00,40.1,38.5,29.83,NNW,329,6.0,12.0,94,0.02,,---,0.44,VWS V14.01,2013-04-24 00:23:00,
2013-04-23 19:24:00,40.1,38.5,29.84,North,9,6.0,12.0,94,0.02,,---,0.44,VWS V14.01,2013-04-24 00:24:00,
2013-04-23 19:25:00,40.1,38.5,29.84,NNE,15,4.0,12.0,94,0.02,,---,0.44,VWS V14.01,2013-04-24 00:25:00,
2013-04-23 19:26:00,40.1,38.5,29.84,North,9,11.0,12.0,94,0.02,,---,0.44,VWS V14.01,2013-04-24 00:26:00,
2013-04-23 19:27:00,40.1,38.5,29.84,North,360,8.0,12.0,94,0.02,,---,0.44,VWS V14.01,2013-04-24 00:27:00,
2013-04-23 19:29:00,40.0,38.4,29.84,NNW,342,4.0,12.0,94,0.02,,---,0.44,VWS V14.01,2013-04-24 00:29:00,
2013-04-23 19:30:00,40.0,38.4,29.84,NNW,344,5.0,12.0,94,0.02,,---,0.44,VWS V14.01,2013-04-24 00:30:00,
2013-04-23 19:31:00,40.1,38.5,29.84,North,355,7.0,10.0,94,0.01,,---,0.44,VWS V14.01,2013-04-24 00:31:00,
2013-04-23 19:33:00,40.1,38.5,29.84,North,11,4.0,10.0,94,0.01,,---,0.44,VWS V14.01,2013-04-24 00:33:00,
2013-04-23 19:34:00,40.1,38.5,29.84,WNW,288,12.0,12.0,94,0.01,,---,0.44,VWS V14.01,2013-04-24 00:34:00,
2013-04-23 19:35:00,40.0,38.4,29.84,NNW,338,4.0,12.0,94,0.01,,---,0.44,VWS V14.01,2013-04-24 00:35:00,
2013-04-23 19:36:00,40.0,38.4,29.84,North,350,5.0,12.0,94,0.01,,---,0.44,VWS V14.01,2013-04-24 00:36:00,
2013-04-23 19:38:00,40.0,38.4,29.84,North,5,3.0,12.0,94,0.01,,---,0.44,VWS V14.01,2013-04-24 00:38:00,
2013-04-23 19:39:00,40.1,38.5,29.84,NNW,339,7.0,12.0,94,0.01,,---,0.44,VWS V14.01,2013-04-24 00:39:00,
2013-04-23 19:40:00,40.0,38.4,29.84,WNW,301,4.0,12.0,94,0.01,,---,0.44,VWS V14.01,2013-04-24 00:40:00,
2013-04-23 19:41:00,40.0,38.4,29.84,NNW,346,9.0,12.0,94,0.01,,---,0.44,VWS V14.01,2013-04-24 00:41:00,
2013-04-23 19:42:00,40.0,38.4,29.84,NNW,345,7.0,12.0,94,0.01,,---,0.44,VWS V14.01,2013-04-24 00:42:00,
2013-04-23 19:44:00,40.0,38.4,29.84,NW,317,6.0,12.0,94,0.01,,---,0.44,VWS V14.01,2013-04-24 00:44:00,
2013-04-23 19:45:00,40.0,38.4,29.84,NNW,347,5.0,12.0,94,0.01,,---,0.44,VWS V14.01,2013-04-24 00:45:00,
2013-04-23 19:46:00,40.0,38.4,29.84,North,355,5.0,12.0,94,0.01,,---,0.44,VWS V14.01,2013-04-24 00:46:00,
2013-04-23 19:47:00,40.0,38.4,29.84,NNW,339,6.0,12.0,94,0.01,,---,0.44,VWS V14.01,2013-04-24 00:47:00,
2013-04-23 19:49:00,40.0,38.4,29.85,NNW,336,3.0,12.0,94,0.01,,---,0.44,VWS V14.01,2013-04-24 00:49:00,
2013-04-23 19:50:00,40.0,38.4,29.86,NNE,27,7.0,12.0,94,0.01,,---,0.44,VWS V14.01,2013-04-24 00:50:00,
2013-04-23 19:51:00,40.0,38.4,29.86,North,351,10.0,12.0,94,0.01,,---,0.44,VWS V14.01,2013-04-24 00:51:00,
2013-04-23 19:52:00,40.0,38.4,29.86,North,355,11.0,12.0,94,0.01,,---,0.44,VWS V14.01,2013-04-24 00:52:00,
2013-04-23 19:54:00,40.0,38.1,29.86,North,351,9.0,12.0,93,0.01,,---,0.44,VWS V14.01,2013-04-24 00:54:00,
2013-04-23 19:55:00,40.1,38.2,29.86,NNW,348,4.0,12.0,93,0.01,,---,0.44,VWS V14.01,2013-04-24 00:55:00,
2013-04-23 19:56:00,40.1,38.2,29.86,NNE,26,9.0,12.0,93,0.01,,---,0.44,VWS V14.01,2013-04-24 00:56:00,
2013-04-23 19:57:00,40.0,38.1,29.86,North,355,9.0,12.0,93,0.01,,---,0.44,VWS V14.01,2013-04-24 00:57:00,
2013-04-23 19:59:00,40.0,38.1,29.86,NNW,346,5.0,12.0,93,0.01,,---,0.44,VWS V14.01,2013-04-24 00:59:00,
2013-04-23 20:00:00,40.0,38.1,29.86,NNE,15,5.0,5.0,93,0.00,,---,0.44,VWS V14.01,2013-04-24 01:00:00,
2013-04-23 20:01:00,40.0,38.1,29.86,NW,308,6.0,9.0,93,0.00,,---,0.44,VWS V14.01,2013-04-24 01:01:00,
2013-04-23 20:02:00,40.0,38.1,29.86,North,360,5.0,9.0,93,0.00,,---,0.44,VWS V14.01,2013-04-24 01:02:00,
2013-04-23 20:04:00,40.0,38.1,29.86,NNW,346,6.0,9.0,93,0.00,,---,0.44,VWS V14.01,2013-04-24 01:04:00,
2013-04-23 20:05:00,40.0,38.1,29.86,North,350,3.0,11.0,93,0.00,,---,0.44,VWS V14.01,2013-04-24 01:05:00,
2013-04-23 20:06:00,40.0,38.1,29.86,NNW,344,4.0,11.0,93,0.00,,---,0.44,VWS V14.01,2013-04-24 01:06:00,
2013-04-23 20:08:00,40.0,38.1,29.86,NNW,333,4.0,11.0,93,0.00,,---,0.44,VWS V14.01,2013-04-24 01:08:00,
2013-04-23 20:09:00,40.0,38.1,29.86,North,350,9.0,11.0,93,0.00,,---,0.44,VWS V14.01,2013-04-24 01:09:00,
2013-04-23 20:10:00,40.0,38.1,29.86,WNW,296,4.0,11.0,93,0.00,,---,0.44,VWS V14.01,2013-04-24 01:10:00,
2013-04-23 20:11:00,40.0,38.1,29.86,North,355,3.0,11.0,93,0.00,,---,0.44,VWS V14.01,2013-04-24 01:11:00,
2013-04-23 20:13:00,39.9,38.0,29.87,North,349,5.0,11.0,93,0.00,,---,0.44,VWS V14.01,2013-04-24 01:13:00,
2013-04-23 20:14:00,40.0,38.1,29.86,NNE,19,11.0,11.0,93,0.00,,---,0.44,VWS V14.01,2013-04-24 01:14:00,
2013-04-23 20:15:00,40.0,38.1,29.86,NNW,347,7.0,11.0,93,0.00,,---,0.44,VWS V14.01,2013-04-24 01:15:00,
2013-04-23 20:17:00,39.9,38.0,29.86,North,11,5.0,11.0,93,0.00,,---,0.44,VWS V14.01,2013-04-24 01:17:00,
2013-04-23 20:18:00,40.0,38.1,29.86,North,360,6.0,11.0,93,0.00,,---,0.44,VWS V14.01,2013-04-24 01:18:00,
2013-04-23 20:19:00,40.0,38.1,29.86,NW,322,10.0,11.0,93,0.00,,---,0.44,VWS V14.01,2013-04-24 01:19:00,
2013-04-23 20:20:00,40.0,38.1,29.86,NNW,340,5.0,11.0,93,0.00,,---,0.44,VWS V14.01,2013-04-24 01:20:00,
2013-04-23 20:22:00,40.0,38.1,29.87,North,351,4.0,11.0,93,0.00,,---,0.44,VWS V14.01,2013-04-24 01:22:00,
2013-04-23 20:23:00,40.0,38.1,29.87,North,350,4.0,11.0,93,0.00,,---,0.44,VWS V14.01,2013-04-24 01:23:00,
2013-04-23 20:24:00,40.0,38.1,29.87,NNW,332,2.0,11.0,93,0.00,,---,0.44,VWS V14.01,2013-04-24 01:24:00,
2013-04-23 20:25:00,40.0,38.1,29.87,NNW,336,0.0,11.0,93,0.00,,---,0.44,VWS V14.01,2013-04-24 01:25:00,
2013-04-23 20:26:00,40.0,38.1,29.87,North,5,3.0,11.0,93,0.00,,---,0.44,VWS V14.01,2013-04-24 01:26:00,
2013-04-23 20:27:00,40.0,38.1,29.87,North,355,3.0,11.0,93,0.00,,---,0.44,VWS V14.01,2013-04-24 01:27:00,
2013-04-23 20:28:00,40.0,38.1,29.87,NNW,348,7.0,11.0,93,0.00,,---,0.44,VWS V14.01,2013-04-24 01:28:00,
2013-04-23 20:29:00,40.0,38.1,29.87,North,355,2.0,11.0,93,0.00,,---,0.44,VWS V14.01,2013-04-24 01:29:00,
2013-04-23 20:30:00,40.0,38.1,29.87,North,355,3.0,11.0,93,0.00,,---,0.44,VWS V14.01,2013-04-24 01:30:00,
2013-04-23 20:31:00,40.0,38.1,29.87,NNW,346,4.0,5.0,93,0.00,,---,0.44,VWS V14.01,2013-04-24 01:31:00,
2013-04-23 20:32:00,40.0,38.1,29.87,North,360,4.0,7.0,93,0.00,,---,0.44,VWS V14.01,2013-04-24 01:32:00,
2013-04-23 20:33:00,40.0,38.1,29.87,NW,307,4.0,7.0,93,0.00,,---,0.44,VWS V14.01,2013-04-24 01:33:00,
2013-04-23 20:35:00,40.0,38.1,29.87,NNW,348,1.0,7.0,93,0.00,,---,0.44,VWS V14.01,2013-04-24 01:35:00,
2013-04-23 20:36:00,40.0,38.1,29.87,NNW,347,3.0,7.0,93,0.00,,---,0.44,VWS V14.01,2013-04-24 01:36:00,
2013-04-23 20:37:00,40.0,38.1,29.87,NW,324,0.0,7.0,93,0.00,,---,0.44,VWS V14.01,2013-04-24 01:37:00,
2013-04-23 20:39:00,40.0,38.1,29.87,WNW,303,3.0,7.0,93,0.00,,---,0.44,VWS V14.01,2013-04-24 01:39:00,
2013-04-23 20:40:00,40.0,38.1,29.87,NNW,329,6.0,7.0,93,0.00,,---,0.44,VWS V14.01,2013-04-24 01:40:00,
2013-04-23 20:41:00,40.0,38.1,29.87,NNW,333,5.0,10.0,93,0.00,,---,0.44,VWS V14.01,2013-04-24 01:41:00,
2013-04-23 20:42:00,40.0,38.1,29.87,NNE,14,5.0,10.0,93,0.00,,---,0.44,VWS V14.01,2013-04-24 01:42:00,
2013-04-23 20:44:00,39.9,38.0,29.87,NW,314,4.0,10.0,93,0.00,,---,0.44,VWS V14.01,2013-04-24 01:44:00,
2013-04-23 20:45:00,39.9,38.0,29.87,North,9,5.0,10.0,93,0.00,,---,0.44,VWS V14.01,2013-04-24 01:45:00,
2013-04-23 20:46:00,39.9,38.0,29.87,NNE,19,5.0,10.0,93,0.00,,---,0.44,VWS V14.01,2013-04-24 01:46:00,
2013-04-23 20:47:00,39.9,38.0,29.87,North,5,3.0,10.0,93,0.00,,---,0.44,VWS V14.01,2013-04-24 01:47:00,
2013-04-23 20:49:00,39.8,38.0,29.87,NNW,340,4.0,10.0,93,0.00,,---,0.44,VWS V14.01,2013-04-24 01:49:00,
2013-04-23 20:50:00,39.8,38.0,29.87,NNW,341,3.0,10.0,93,0.00,,---,0.44,VWS V14.01,2013-04-24 01:50:00,
2013-04-23 20:51:00,39.8,38.0,29.87,NNE,19,4.0,10.0,93,0.00,,---,0.44,VWS V14.01,2013-04-24 01:51:00,
2013-04-23 20:52:00,39.8,38.0,29.87,North,9,7.0,11.0,93,0.00,,---,0.44,VWS V14.01,2013-04-24 01:52:00,
2013-04-23 20:54:00,39.8,38.0,29.87,North,355,6.0,11.0,93,0.00,,---,0.44,VWS V14.01,2013-04-24 01:54:00,
2013-04-23 20:55:00,39.8,38.0,29.87,North,355,7.0,11.0,93,0.00,,---,0.44,VWS V14.01,2013-04-24 01:55:00,
2013-04-23 20:56:00,39.8,38.0,29.87,NW,322,4.0,11.0,93,0.00,,---,0.44,VWS V14.01,2013-04-24 01:56:00,
2013-04-23 20:57:00,39.8,38.0,29.87,North,349,5.0,11.0,93,0.00,,---,0.44,VWS V14.01,2013-04-24 01:57:00,
2013-04-23 20:59:00,39.7,37.8,29.87,NNW,338,4.0,11.0,93,0.00,,---,0.44,VWS V14.01,2013-04-24 01:59:00,
2013-04-23 21:00:00,39.8,38.0,29.87,North,351,7.0,11.0,93,0.00,,---,0.44,VWS V14.01,2013-04-24 02:00:00,
2013-04-23 21:01:00,39.8,38.0,29.87,North,5,5.0,7.0,93,0.00,,---,0.44,VWS V14.01,2013-04-24 02:01:00,
2013-04-23 21:02:00,39.8,38.0,29.87,NW,320,9.0,9.0,93,0.00,,---,0.44,VWS V14.01,2013-04-24 02:02:00,
2013-04-23 21:03:00,39.8,38.0,29.87,North,355,5.0,9.0,93,0.00,,---,0.44,VWS V14.01,2013-04-24 02:03:00,
2013-04-23 21:04:00,39.8,38.0,29.87,NNW,348,3.0,9.0,93,0.00,,---,0.44,VWS V14.01,2013-04-24 02:04:00,
2013-04-23 21:05:00,39.8,38.0,29.87,North,355,2.0,9.0,93,0.00,,---,0.44,VWS V14.01,2013-04-24 02:05:00,
2013-04-23 21:06:00,39.8,38.0,29.87,NNW,340,10.0,10.0,93,0.00,,---,0.44,VWS V14.01,2013-04-24 02:06:00,
2013-04-23 21:07:00,39.7,37.8,29.87,NW,321,1.0,10.0,93,0.00,,---,0.44,VWS V14.01,2013-04-24 02:07:00,
2013-04-23 21:08:00,39.7,37.8,29.87,North,11,6.0,10.0,93,0.00,,---,0.44,VWS V14.01,2013-04-24 02:08:00,
2013-04-23 21:09:00,39.7,37.8,29.87,NNW,330,1.0,10.0,93,0.00,,---,0.44,VWS V14.01,2013-04-24 02:09:00,
2013-04-23 21:11:00,39.7,37.8,29.88,NW,326,2.0,10.0,93,0.00,,---,0.44,VWS V14.01,2013-04-24 02:11:00,
2013-04-23 21:12:00,39.7,37.8,29.88,NW,313,3.0,10.0,93,0.00,,---,0.44,VWS V14.01,2013-04-24 02:12:00,
2013-04-23 21:13:00,39.7,37.8,29.88,NNW,327,3.0,10.0,93,0.00,,---,0.44,VWS V14.01,2013-04-24 02:13:00,
2013-04-23 21:14:00,39.7,37.8,29.88,NW,319,4.0,10.0,93,0.00,,---,0.44,VWS V14.01,2013-04-24 02:14:00,
2013-04-23 21:16:00,39.7,37.8,29.88,WNW,294,4.0,10.0,93,0.00,,---,0.44,VWS V14.01,2013-04-24 02:16:00,
2013-04-23 21:17:00,39.7,37.8,29.88,NNE,20,7.0,11.0,93,0.00,,---,0.44,VWS V14.01,2013-04-24 02:17:00,
2013-04-23 21:18:00,39.7,37.8,29.88,North,5,6.0,11.0,93,0.00,,---,0.44,VWS V14.01,2013-04-24 02:18:00,
2013-04-23 21:21:00,39.7,37.8,29.88,North,360,8.0,11.0,93,0.00,,---,0.44,VWS V14.01,2013-04-24 02:21:00,
2013-04-23 21:22:00,39.7,37.6,29.88,North,351,6.0,11.0,92,0.00,,---,0.44,VWS V14.01,2013-04-24 02:22:00,
2013-04-23 21:24:00,39.7,37.8,29.88,North,360,6.0,11.0,93,0.00,,---,0.44,VWS V14.01,2013-04-24 02:24:00,
2013-04-23 21:26:00,39.7,37.8,29.88,North,355,4.0,12.0,93,0.00,,---,0.44,VWS V14.01,2013-04-24 02:26:00,
2013-04-23 21:27:00,39.7,37.6,29.88,North,355,4.0,12.0,92,0.00,,---,0.44,VWS V14.01,2013-04-24 02:27:00,
2013-04-23 21:28:00,39.6,37.5,29.88,North,355,3.0,12.0,92,0.00,,---,0.44,VWS V14.01,2013-04-24 02:28:00,
2013-04-23 21:29:00,39.6,37.5,29.88,NW,320,5.0,12.0,92,0.00,,---,0.44,VWS V14.01,2013-04-24 02:29:00,
2013-04-23 21:31:00,39.6,37.5,29.88,NW,316,5.0,7.0,92,0.00,,---,0.44,VWS V14.01,2013-04-24 02:31:00,
2013-04-23 21:32:00,39.6,37.5,29.88,North,5,3.0,14.0,92,0.00,,---,0.44,VWS V14.01,2013-04-24 02:32:00,
2013-04-23 21:33:00,39.6,37.5,29.88,NNE,17,3.0,14.0,92,0.00,,---,0.44,VWS V14.01,2013-04-24 02:33:00,
2013-04-23 21:34:00,39.6,37.5,29.88,NNW,333,3.0,14.0,92,0.00,,---,0.44,VWS V14.01,2013-04-24 02:34:00,
2013-04-23 21:36:00,39.6,37.5,29.88,NNW,341,6.0,14.0,92,0.00,,---,0.44,VWS V14.01,2013-04-24 02:36:00,
2013-04-23 21:38:00,39.6,37.5,29.89,NNW,341,4.0,14.0,92,0.00,,---,0.44,VWS V14.01,2013-04-24 02:38:00,
2013-04-23 21:39:00,39.6,37.5,29.89,NW,319,3.0,14.0,92,0.00,,---,0.44,VWS V14.01,2013-04-24 02:39:00,
2013-04-23 21:41:00,39.6,37.5,29.88,NW,320,5.0,14.0,92,0.00,,---,0.44,VWS V14.01,2013-04-24 02:41:00,
2013-04-23 21:43:00,39.6,37.5,29.88,North,11,5.0,14.0,92,0.00,,---,0.44,VWS V14.01,2013-04-24 02:43:00,
2013-04-23 21:44:00,39.6,37.5,29.89,North,355,4.0,14.0,92,0.00,,---,0.44,VWS V14.01,2013-04-24 02:44:00,
2013-04-23 21:45:00,39.6,37.5,29.89,WNW,297,5.0,14.0,92,0.00,,---,0.44,VWS V14.01,2013-04-24 02:45:00,
2013-04-23 21:46:00,39.5,37.4,29.89,NNW,337,4.0,14.0,92,0.00,,---,0.44,VWS V14.01,2013-04-24 02:46:00,
2013-04-23 21:48:00,39.6,37.5,29.90,NNE,15,6.0,14.0,92,0.00,,---,0.44,VWS V14.01,2013-04-24 02:48:00,
2013-04-23 21:49:00,39.5,37.4,29.89,North,355,4.0,14.0,92,0.00,,---,0.44,VWS V14.01,2013-04-24 02:49:00,
2013-04-23 21:50:00,39.5,37.4,29.89,North,355,6.0,14.0,92,0.00,,---,0.44,VWS V14.01,2013-04-24 02:50:00,
2013-04-23 21:52:00,39.5,37.4,29.89,NNW,337,7.0,14.0,92,0.00,,---,0.44,VWS V14.01,2013-04-24 02:52:00,
2013-04-23 21:53:00,39.6,37.5,29.89,NNW,327,5.0,14.0,92,0.00,,---,0.44,VWS V14.01,2013-04-24 02:53:00,
2013-04-23 21:54:00,39.5,37.4,29.89,NNE,26,4.0,14.0,92,0.00,,---,0.44,VWS V14.01,2013-04-24 02:54:00,
2013-04-23 21:55:00,39.6,37.5,29.89,NW,323,5.0,14.0,92,0.00,,---,0.44,VWS V14.01,2013-04-24 02:55:00,
2013-04-23 21:57:00,39.5,37.4,29.89,North,355,6.0,14.0,92,0.00,,---,0.44,VWS V14.01,2013-04-24 02:57:00,
2013-04-23 21:59:00,39.6,37.8,29.89,NNW,337,5.0,14.0,93,0.00,,---,0.44,VWS V14.01,2013-04-24 02:59:00,
2013-04-23 22:00:00,39.5,37.7,29.89,NNW,348,5.0,14.0,93,0.00,,---,0.44,VWS V14.01,2013-04-24 03:00:00,
2013-04-23 22:01:00,39.5,37.7,29.89,North,360,5.0,7.0,93,0.00,,---,0.44,VWS V14.01,2013-04-24 03:01:00,
2013-04-23 22:02:00,39.2,37.3,29.92,NNW,338,3.0,6.0,93,0.01,,---,0.45,VWS V14.01,2013-04-24 03:02:00,
2013-04-23 22:03:00,39.5,37.7,29.89,NNW,329,5.0,7.0,93,0.00,,---,0.44,VWS V14.01,2013-04-24 03:03:00,
2013-04-23 22:04:00,39.5,37.7,29.89,NNW,343,6.0,9.0,93,0.00,,---,0.44,VWS V14.01,2013-04-24 03:04:00,
2013-04-23 22:05:00,39.5,37.7,29.89,NNW,346,4.0,9.0,93,0.00,,---,0.44,VWS V14.01,2013-04-24 03:05:00,
2013-04-23 22:06:00,39.5,37.7,29.89,NNW,348,4.0,9.0,93,0.00,,---,0.44,VWS V14.01,2013-04-24 03:06:00,
2013-04-23 22:08:00,39.5,37.7,29.90,NNW,346,2.0,9.0,93,0.00,,---,0.44,VWS V14.01,2013-04-24 03:08:00,
2013-04-23 22:09:00,39.5,37.7,29.90,North,9,10.0,10.0,93,0.00,,---,0.44,VWS V14.01,2013-04-24 03:09:00,
2013-04-23 22:12:00,39.5,37.7,29.90,NNE,19,3.0,10.0,93,0.01,,---,0.45,VWS V14.01,2013-04-24 03:12:00,
2013-04-23 22:13:00,39.5,37.7,29.90,North,350,3.0,10.0,93,0.01,,---,0.45,VWS V14.01,2013-04-24 03:13:00,
2013-04-23 22:15:00,39.5,37.7,29.90,NNW,328,4.0,10.0,93,0.01,,---,0.45,VWS V14.01,2013-04-24 03:15:00,
2013-04-23 22:17:00,39.5,37.7,29.90,North,349,4.0,10.0,93,0.01,,---,0.45,VWS V14.01,2013-04-24 03:17:00,
2013-04-23 22:18:00,39.5,37.7,29.90,NW,318,3.0,10.0,93,0.01,,---,0.45,VWS V14.01,2013-04-24 03:18:00,
2013-04-23 22:19:00,39.5,37.7,29.90,North,5,4.0,10.0,93,0.01,,---,0.45,VWS V14.01,2013-04-24 03:19:00,
2013-04-23 22:20:00,39.5,37.7,29.90,NNW,338,3.0,10.0,93,0.01,,---,0.45,VWS V14.01,2013-04-24 03:20:00,
2013-04-23 22:22:00,39.5,37.7,29.90,NNE,13,4.0,10.0,93,0.01,,---,0.45,VWS V14.01,2013-04-24 03:22:00,
2013-04-23 22:23:00,39.4,37.5,29.90,NNW,345,4.0,10.0,93,0.01,,---,0.45,VWS V14.01,2013-04-24 03:23:00,
2013-04-23 22:24:00,39.4,37.5,29.90,NNW,335,4.0,10.0,93,0.01,,---,0.45,VWS V14.01,2013-04-24 03:24:00,
2013-04-23 22:25:00,39.5,37.7,29.91,North,355,3.0,10.0,93,0.01,,---,0.45,VWS V14.01,2013-04-24 03:25:00,
2013-04-23 22:27:00,39.5,37.7,29.91,NNW,341,5.0,10.0,93,0.01,,---,0.45,VWS V14.01,2013-04-24 03:27:00,
2013-04-23 22:28:00,39.4,37.5,29.91,NW,319,3.0,10.0,93,0.01,,---,0.45,VWS V14.01,2013-04-24 03:28:00,
2013-04-23 22:30:00,39.4,37.5,29.91,NNW,336,2.0,10.0,93,0.01,,---,0.45,VWS V14.01,2013-04-24 03:30:00,
2013-04-23 22:32:00,39.4,37.5,29.91,North,350,8.0,8.0,93,0.01,,---,0.45,VWS V14.01,2013-04-24 03:32:00,
2013-04-23 22:33:00,39.4,37.5,29.91,NNW,336,2.0,8.0,93,0.01,,---,0.45,VWS V14.01,2013-04-24 03:33:00,
2013-04-23 22:35:00,39.4,37.5,29.91,NW,306,6.0,8.0,93,0.01,,---,0.45,VWS V14.01,2013-04-24 03:35:00,
2013-04-23 22:36:00,39.4,37.5,29.91,NNW,344,3.0,8.0,93,0.01,,---,0.45,VWS V14.01,2013-04-24 03:36:00,
2013-04-23 22:37:00,39.3,37.5,29.91,North,351,5.0,8.0,93,0.01,,---,0.45,VWS V14.01,2013-04-24 03:37:00,
2013-04-23 22:38:00,39.3,37.5,29.91,NNW,336,4.0,8.0,93,0.01,,---,0.45,VWS V14.01,2013-04-24 03:38:00,
2013-04-23 22:40:00,39.3,37.5,29.91,NNW,346,2.0,8.0,93,0.01,,---,0.45,VWS V14.01,2013-04-24 03:40:00,
2013-04-23 22:41:00,39.3,37.5,29.91,North,355,4.0,8.0,93,0.01,,---,0.45,VWS V14.01,2013-04-24 03:41:00,
2013-04-23 22:42:00,39.3,37.5,29.91,NNW,333,5.0,8.0,93,0.01,,---,0.45,VWS V14.01,2013-04-24 03:42:00,
2013-04-23 22:44:00,39.3,37.5,29.91,North,355,7.0,8.0,93,0.01,,---,0.45,VWS V14.01,2013-04-24 03:44:00,
2013-04-23 22:45:00,39.3,37.5,29.91,NW,315,5.0,8.0,93,0.01,,---,0.45,VWS V14.01,2013-04-24 03:45:00,
2013-04-23 22:47:00,39.3,37.5,29.91,NW,308,6.0,8.0,93,0.01,,---,0.45,VWS V14.01,2013-04-24 03:47:00,
2013-04-23 22:48:00,39.3,37.5,29.91,NNW,340,6.0,8.0,93,0.01,,---,0.45,VWS V14.01,2013-04-24 03:48:00,
2013-04-23 22:49:00,39.3,37.5,29.91,NNW,327,3.0,8.0,93,0.01,,---,0.45,VWS V14.01,2013-04-24 03:49:00,
2013-04-23 22:50:00,39.3,37.5,29.91,North,355,3.0,8.0,93,0.01,,---,0.45,VWS V14.01,2013-04-24 03:50:00,
2013-04-23 22:53:00,39.3,37.5,29.91,NNW,348,1.0,8.0,93,0.01,,---,0.45,VWS V14.01,2013-04-24 03:53:00,
2013-04-23 22:54:00,39.3,37.5,29.92,North,355,4.0,8.0,93,0.01,,---,0.45,VWS V14.01,2013-04-24 03:54:00,
2013-04-23 22:56:00,39.3,37.5,29.91,North,355,2.0,9.0,93,0.01,,---,0.45,VWS V14.01,2013-04-24 03:56:00,
2013-04-23 22:58:00,39.2,37.3,29.91,NNW,346,4.0,9.0,93,0.01,,---,0.45,VWS V14.01,2013-04-24 03:58:00,
2013-04-23 22:59:00,39.2,37.3,29.91,NNW,342,3.0,9.0,93,0.01,,---,0.45,VWS V14.01,2013-04-24 03:59:00,
2013-04-23 23:03:00,39.2,37.3,29.92,NW,309,3.0,6.0,93,0.01,,---,0.45,VWS V14.01,2013-04-24 04:03:00,
2013-04-23 23:04:00,39.2,37.3,29.92,NNW,346,4.0,6.0,93,0.01,,---,0.45,VWS V14.01,2013-04-24 04:04:00,
2013-04-23 23:05:00,39.2,37.3,29.92,North,355,4.0,6.0,93,0.01,,---,0.45,VWS V14.01,2013-04-24 04:05:00,
2013-04-23 23:09:00,39.2,37.3,29.91,North,355,4.0,7.0,93,0.01,,---,0.45,VWS V14.01,2013-04-24 04:09:00,
2013-04-23 23:10:00,39.2,37.3,29.91,North,355,5.0,7.0,93,0.01,,---,0.45,VWS V14.01,2013-04-24 04:10:00,
2013-04-23 23:14:00,39.1,37.2,29.92,NW,325,2.0,7.0,93,0.01,,---,0.45,VWS V14.01,2013-04-24 04:14:00,
2013-04-23 23:15:00,39.1,37.5,29.92,NNW,327,2.0,7.0,94,0.01,,---,0.45,VWS V14.01,2013-04-24 04:15:00,
2013-04-23 23:19:00,39.2,37.6,29.92,NNW,336,4.0,7.0,94,0.01,,---,0.45,VWS V14.01,2013-04-24 04:19:00,
2013-04-23 23:20:00,39.1,37.2,29.92,North,351,1.0,7.0,93,0.01,,---,0.45,VWS V14.01,2013-04-24 04:20:00,
2013-04-23 23:24:00,39.1,37.2,29.92,NW,319,3.0,7.0,93,0.01,,---,0.45,VWS V14.01,2013-04-24 04:24:00,
2013-04-23 23:25:00,39.1,37.2,29.92,NW,323,3.0,7.0,93,0.01,,---,0.45,VWS V14.01,2013-04-24 04:25:00,
2013-04-23 23:26:00,39.1,37.5,29.92,NNW,337,4.0,7.0,94,0.02,,---,0.46,VWS V14.01,2013-04-24 04:26:00,
2013-04-23 23:29:00,39.1,37.5,29.92,NNW,335,2.0,7.0,94,0.02,,---,0.46,VWS V14.01,2013-04-24 04:29:00,
2013-04-23 23:30:00,39.1,37.5,29.92,North,5,5.0,5.0,94,0.01,,---,0.46,VWS V14.01,2013-04-24 04:30:00,
2013-04-23 23:31:00,39.0,37.4,29.92,NW,313,4.0,5.0,94,0.01,,---,0.46,VWS V14.01,2013-04-24 04:31:00,
2013-04-23 23:35:00,39.0,37.4,29.92,North,355,3.0,6.0,94,0.01,,---,0.46,VWS V14.01,2013-04-24 04:35:00,
2013-04-23 23:36:00,39.1,37.5,29.92,North,360,3.0,6.0,94,0.01,,---,0.46,VWS V14.01,2013-04-24 04:36:00,
2013-04-23 23:40:00,39.1,37.5,29.92,North,360,3.0,6.0,94,0.01,,---,0.46,VWS V14.01,2013-04-24 04:40:00,
2013-04-23 23:41:00,39.0,37.2,29.93,North,355,2.0,6.0,93,0.01,,---,0.46,VWS V14.01,2013-04-24 04:41:00,
2013-04-23 23:42:00,39.0,37.2,29.92,North,355,1.0,6.0,93,0.01,,---,0.46,VWS V14.01,2013-04-24 04:42:00,
2013-04-23 23:45:00,39.0,37.2,29.93,North,355,3.0,6.0,93,0.01,,---,0.46,VWS V14.01,2013-04-24 04:45:00,
2013-04-23 23:46:00,39.0,37.2,29.93,NNW,332,3.0,6.0,93,0.01,,---,0.46,VWS V14.01,2013-04-24 04:46:00,
2013-04-23 23:47:00,39.0,37.2,29.93,NNW,340,3.0,6.0,93,0.01,,---,0.46,VWS V14.01,2013-04-24 04:47:00,
2013-04-23 23:50:00,39.1,37.5,29.93,NW,309,3.0,6.0,94,0.01,,---,0.46,VWS V14.01,2013-04-24 04:50:00,
2013-04-23 23:51:00,39.1,37.5,29.93,NNW,332,5.0,6.0,94,0.01,,---,0.46,VWS V14.01,2013-04-24 04:51:00,
2013-04-23 23:52:00,39.1,37.5,29.93,NNW,334,1.0,6.0,94,0.01,,---,0.46,VWS V14.01,2013-04-24 04:52:00,
2013-04-23 23:55:00,39.1,37.5,29.92,NNW,347,5.0,6.0,94,0.01,,---,0.46,VWS V14.01,2013-04-24 04:55:00,
2013-04-23 23:56:00,39.1,37.5,29.93,NNW,342,1.0,6.0,94,0.01,,---,0.46,VWS V14.01,2013-04-24 04:56:00,
2013-04-23 23:57:00,39.1,37.5,29.93,NW,315,4.0,6.0,94,0.01,,---,0.46,VWS V14.01,2013-04-24 04:57:00,